Time,TemperatureF,DewpointF,PressureIn,WindDirection,WindDirectionDegrees,WindSpeedMPH,WindSpeedGustMPH,Humidity,HourlyPrecipIn,Conditions,Clouds,dailyrainin,SolarRadiationWatts/m^2,SoftwareType,DateUTC
2013-01-13 00:01:00,39.8,39.0,30.09,West,261,0.0,4.0,97,0.00,,,0.00,0.00,VWS V14.01,2013-01-13 05:01:00,
2013-01-13 00:03:00,39.8,39.0,30.09,West,261,0.0,4.0,97,0.00,,,0.00,0.00,VWS V14.01,2013-01-13 05:03:00,
2013-01-13 00:05:00,39.8,39.0,30.09,West,261,0.0,4.0,97,0.00,,,0.00,0.00,VWS V14.01,2013-01-13 05:05:00,
2013-01-13 00:11:00,39.8,39.0,30.09,West,261,0.0,1.0,97,0.00,,,0.00,0.00,VWS V14.01,2013-01-13 05:11:00,
2013-01-13 00:15:00,39.8,39.0,30.09,West,261,0.0,1.0,97,0.00,,,0.00,0.00,VWS V14.01,2013-01-13 05:15:00,
2013-01-13 00:17:00,39.8,39.0,30.08,West,261,0.0,1.0,97,0.00,,,0.00,0.00,VWS V14.01,2013-01-13 05:17:00,
2013-01-13 00:18:00,39.8,39.0,30.08,West,261,0.0,1.0,97,0.00,,,0.00,0.00,VWS V14.01,2013-01-13 05:18:00,
2013-01-13 00:22:00,39.8,39.0,30.08,West,261,0.0,1.0,97,0.00,,,0.00,0.00,VWS V14.01,2013-01-13 05:22:00,
2013-01-13 00:25:00,39.8,39.0,30.08,West,261,0.0,1.0,97,0.00,,,0.00,0.00,VWS V14.01,2013-01-13 05:25:00,
2013-01-13 00:28:00,39.9,39.1,30.08,West,261,0.0,1.0,97,0.00,,,0.00,0.00,VWS V14.01,2013-01-13 05:28:00,
2013-01-13 00:32:00,39.9,39.1,30.08,West,261,0.0,1.0,97,0.00,,,0.00,0.00,VWS V14.01,2013-01-13 05:32:00,
2013-01-13 00:35:00,39.8,39.0,30.08,West,261,0.0,1.0,97,0.00,,,0.00,0.00,VWS V14.01,2013-01-13 05:35:00,
2013-01-13 00:37:00,39.8,39.0,30.08,West,261,0.0,1.0,97,0.00,,,0.00,0.00,VWS V14.01,2013-01-13 05:37:00,
2013-01-13 00:41:00,39.8,39.0,30.08,West,261,0.0,1.0,97,0.00,,,0.00,0.00,VWS V14.01,2013-01-13 05:41:00,
2013-01-13 00:44:00,39.7,38.9,30.08,West,261,0.0,1.0,97,0.00,,,0.00,0.00,VWS V14.01,2013-01-13 05:44:00,
2013-01-13 00:47:00,39.7,38.9,30.08,West,261,0.0,1.0,97,0.00,,,0.00,0.00,VWS V14.01,2013-01-13 05:47:00,
2013-01-13 00:51:00,39.8,39.0,30.08,West,261,0.0,1.0,97,0.00,,,0.00,0.00,VWS V14.01,2013-01-13 05:51:00,
2013-01-13 00:54:00,39.7,38.9,30.07,West,261,0.0,1.0,97,0.00,,,0.00,0.00,VWS V14.01,2013-01-13 05:54:00,
2013-01-13 00:56:00,39.7,38.9,30.07,ESE,118,0.0,1.0,97,0.00,,,0.00,0.00,VWS V14.01,2013-01-13 05:56:00,
2013-01-13 00:59:00,39.7,38.9,30.07,ESE,118,0.0,1.0,97,0.00,,,0.00,0.00,VWS V14.01,2013-01-13 05:59:00,
2013-01-13 01:01:00,39.7,38.9,30.07,ESE,117,0.0,1.0,97,0.00,,,0.00,0.00,VWS V14.01,2013-01-13 06:01:00,
2013-01-13 01:06:00,39.6,38.8,30.08,ESE,117,0.0,0.0,97,0.00,,,0.00,0.00,VWS V14.01,2013-01-13 06:06:00,
2013-01-13 01:08:00,39.6,38.8,30.08,ESE,117,0.0,0.0,97,0.00,,,0.00,0.00,VWS V14.01,2013-01-13 06:08:00,
2013-01-13 01:10:00,39.5,38.7,30.08,ESE,117,0.0,0.0,97,0.00,,,0.00,0.00,VWS V14.01,2013-01-13 06:10:00,
2013-01-13 01:13:00,39.5,38.7,30.08,ESE,118,0.0,0.0,97,0.00,,,0.00,0.00,VWS V14.01,2013-01-13 06:13:00,
2013-01-13 01:15:00,39.5,38.7,30.08,ESE,118,0.0,0.0,97,0.00,,,0.00,0.00,VWS V14.01,2013-01-13 06:15:00,
2013-01-13 01:16:00,39.5,38.7,30.08,ESE,118,0.0,0.0,97,0.00,,,0.00,0.00,VWS V14.01,2013-01-13 06:16:00,
2013-01-13 01:20:00,39.4,38.6,30.08,ESE,118,0.0,0.0,97,0.00,,,0.00,0.00,VWS V14.01,2013-01-13 06:20:00,
2013-01-13 01:25:00,39.4,38.6,30.08,ESE,118,0.0,0.0,97,0.00,,,0.00,0.00,VWS V14.01,2013-01-13 06:25:00,
2013-01-13 01:27:00,39.4,38.6,30.08,ESE,118,0.0,0.0,97,0.00,,,0.00,0.00,VWS V14.01,2013-01-13 06:27:00,
2013-01-13 01:28:00,39.4,38.6,30.08,ESE,118,0.0,0.0,97,0.00,,,0.00,0.00,VWS V14.01,2013-01-13 06:28:00,
2013-01-13 01:30:00,39.4,38.6,30.09,ESE,118,0.0,1.0,97,0.00,,,0.00,0.00,VWS V14.01,2013-01-13 06:30:00,
2013-01-13 01:32:00,39.4,38.6,30.09,ESE,118,0.0,1.0,97,0.00,,,0.00,0.00,VWS V14.01,2013-01-13 06:32:00,
2013-01-13 01:35:00,39.5,38.7,30.09,SW,234,0.0,2.0,97,0.00,,,0.00,0.00,VWS V14.01,2013-01-13 06:35:00,
2013-01-13 01:39:00,39.5,38.7,30.09,SW,223,0.0,2.0,97,0.00,,,0.00,0.00,VWS V14.01,2013-01-13 06:39:00,
2013-01-13 01:41:00,39.5,38.7,30.09,SW,223,0.0,2.0,97,0.00,,,0.00,0.00,VWS V14.01,2013-01-13 06:41:00,
2013-01-13 01:42:00,39.5,38.7,30.10,SW,214,1.0,2.0,97,0.00,,,0.00,0.00,VWS V14.01,2013-01-13 06:42:00,
2013-01-13 01:44:00,39.6,38.8,30.09,SW,214,0.0,2.0,97,0.00,,,0.00,0.00,VWS V14.01,2013-01-13 06:44:00,
2013-01-13 01:47:00,39.6,38.8,30.09,South,173,0.0,3.0,97,0.00,,,0.00,0.00,VWS V14.01,2013-01-13 06:47:00,
2013-01-13 01:49:00,39.6,38.8,30.09,South,173,0.0,3.0,97,0.00,,,0.00,0.00,VWS V14.01,2013-01-13 06:49:00,
2013-01-13 01:54:00,39.7,38.9,30.10,SSW,200,0.0,3.0,97,0.00,,,0.00,0.00,VWS V14.01,2013-01-13 06:54:00,
2013-01-13 01:56:00,39.8,39.0,30.10,South,182,0.0,3.0,97,0.00,,,0.00,0.00,VWS V14.01,2013-01-13 06:56:00,
2013-01-13 01:59:00,39.8,39.0,30.10,SSW,196,2.0,5.0,97,0.00,,,0.00,0.00,VWS V14.01,2013-01-13 06:59:00,
2013-01-13 02:01:00,39.9,39.1,30.10,SSW,196,0.0,5.0,97,0.00,,,0.00,0.00,VWS V14.01,2013-01-13 07:01:00,
2013-01-13 02:03:00,39.9,39.1,30.10,SSW,196,0.0,5.0,97,0.00,,,0.00,0.00,VWS V14.01,2013-01-13 07:03:00,
2013-01-13 02:05:00,39.9,39.1,30.10,SE,124,0.0,5.0,97,0.00,,,0.00,0.00,VWS V14.01,2013-01-13 07:05:00,
2013-01-13 02:10:00,39.9,39.1,30.09,SE,124,0.0,0.0,97,0.00,,,0.00,0.00,VWS V14.01,2013-01-13 07:10:00,
2013-01-13 02:13:00,39.9,39.1,30.09,SSE,166,0.0,4.0,97,0.00,,,0.00,0.00,VWS V14.01,2013-01-13 07:13:00,
2013-01-13 02:15:00,39.9,39.1,30.10,SSE,166,0.0,4.0,97,0.00,,,0.00,0.00,VWS V14.01,2013-01-13 07:15:00,
2013-01-13 02:17:00,39.9,39.1,30.09,SSE,166,0.0,4.0,97,0.00,,,0.00,0.00,VWS V14.01,2013-01-13 07:17:00,
2013-01-13 02:22:00,40.0,39.2,30.10,South,178,0.0,4.0,97,0.00,,,0.00,0.00,VWS V14.01,2013-01-13 07:22:00,
2013-01-13 02:23:00,39.9,39.1,30.09,South,178,0.0,4.0,97,0.00,,,0.00,0.00,VWS V14.01,2013-01-13 07:23:00,
2013-01-13 02:25:00,39.9,39.1,30.09,South,178,0.0,4.0,97,0.00,,,0.00,0.00,VWS V14.01,2013-01-13 07:25:00,
2013-01-13 02:27:00,39.9,39.1,30.09,South,178,0.0,4.0,97,0.00,,,0.00,0.00,VWS V14.01,2013-01-13 07:27:00,
2013-01-13 02:28:00,40.0,39.2,30.10,South,178,0.0,4.0,97,0.00,,,0.00,0.00,VWS V14.01,2013-01-13 07:28:00,
2013-01-13 02:32:00,39.9,39.1,30.10,South,177,0.0,4.0,97,0.00,,,0.00,0.00,VWS V14.01,2013-01-13 07:32:00,
2013-01-13 02:37:00,39.9,39.1,30.10,South,177,0.0,4.0,97,0.00,,,0.00,0.00,VWS V14.01,2013-01-13 07:37:00,
2013-01-13 02:39:00,39.9,39.1,30.10,South,177,0.0,4.0,97,0.00,,,0.00,0.00,VWS V14.01,2013-01-13 07:39:00,
2013-01-13 02:40:00,39.9,39.1,30.10,SSW,206,0.0,4.0,97,0.00,,,0.00,0.00,VWS V14.01,2013-01-13 07:40:00,
2013-01-13 02:42:00,39.9,39.1,30.10,SW,219,0.0,4.0,97,0.00,,,0.00,0.00,VWS V14.01,2013-01-13 07:42:00,
2013-01-13 02:45:00,39.9,39.1,30.10,SW,219,0.0,4.0,97,0.00,,,0.00,0.00,VWS V14.01,2013-01-13 07:45:00,
2013-01-13 02:47:00,39.9,39.1,30.10,SW,219,0.0,4.0,97,0.00,,,0.00,0.00,VWS V14.01,2013-01-13 07:47:00,
2013-01-13 02:51:00,39.9,39.1,30.10,West,265,0.0,4.0,97,0.00,,,0.00,0.00,VWS V14.01,2013-01-13 07:51:00,
2013-01-13 02:54:00,39.9,39.1,30.10,West,265,0.0,4.0,97,0.00,,,0.00,0.00,VWS V14.01,2013-01-13 07:54:00,
2013-01-13 02:56:00,39.9,39.1,30.10,West,265,0.0,4.0,97,0.00,,,0.00,0.00,VWS V14.01,2013-01-13 07:56:00,
2013-01-13 02:57:00,39.9,39.1,30.10,West,265,0.0,4.0,97,0.00,,,0.00,0.00,VWS V14.01,2013-01-13 07:57:00,
2013-01-13 03:01:00,39.9,39.1,30.10,West,265,0.0,4.0,97,0.00,,,0.00,0.00,VWS V14.01,2013-01-13 08:01:00,
2013-01-13 03:03:00,39.8,39.0,30.09,West,265,0.0,4.0,97,0.00,,,0.00,0.00,VWS V14.01,2013-01-13 08:03:00,
2013-01-13 03:04:00,39.8,39.0,30.09,West,265,0.0,4.0,97,0.00,,,0.00,0.00,VWS V14.01,2013-01-13 08:04:00,
2013-01-13 03:08:00,39.7,38.9,30.09,West,265,0.0,0.0,97,0.00,,,0.00,0.00,VWS V14.01,2013-01-13 08:08:00,
2013-01-13 03:11:00,39.7,38.9,30.09,West,265,0.0,0.0,97,0.00,,,0.00,0.00,VWS V14.01,2013-01-13 08:11:00,
2013-01-13 03:13:00,39.6,38.8,30.09,West,265,0.0,0.0,97,0.00,,,0.00,0.00,VWS V14.01,2013-01-13 08:13:00,
2013-01-13 03:14:00,39.6,38.8,30.09,West,265,0.0,0.0,97,0.00,,,0.00,0.00,VWS V14.01,2013-01-13 08:14:00,
2013-01-13 03:16:00,39.5,38.7,30.09,West,265,0.0,0.0,97,0.00,,,0.00,0.00,VWS V14.01,2013-01-13 08:16:00,
2013-01-13 03:21:00,39.5,38.7,30.08,West,265,0.0,0.0,97,0.00,,,0.00,0.00,VWS V14.01,2013-01-13 08:21:00,
2013-01-13 03:23:00,39.5,38.7,30.08,West,265,0.0,0.0,97,0.00,,,0.00,0.00,VWS V14.01,2013-01-13 08:23:00,
2013-01-13 03:25:00,39.5,38.7,30.08,West,265,0.0,0.0,97,0.00,,,0.00,0.00,VWS V14.01,2013-01-13 08:25:00,
2013-01-13 03:26:00,39.4,38.6,30.08,West,265,0.0,0.0,97,0.00,,,0.00,0.00,VWS V14.01,2013-01-13 08:26:00,
2013-01-13 03:30:00,39.4,38.6,30.08,West,265,0.0,0.0,97,0.00,,,0.00,0.00,VWS V14.01,2013-01-13 08:30:00,
2013-01-13 03:32:00,39.5,38.7,30.07,West,265,0.0,0.0,97,0.00,,,0.00,0.00,VWS V14.01,2013-01-13 08:32:00,
2013-01-13 03:33:00,39.5,38.7,30.07,West,265,0.0,0.0,97,0.00,,,0.00,0.00,VWS V14.01,2013-01-13 08:33:00,
2013-01-13 03:35:00,39.5,38.7,30.07,West,265,0.0,0.0,97,0.00,,,0.00,0.00,VWS V14.01,2013-01-13 08:35:00,
2013-01-13 03:37:00,39.4,38.6,30.07,West,265,0.0,0.0,97,0.00,,,0.00,0.00,VWS V14.01,2013-01-13 08:37:00,
2013-01-13 03:38:00,39.3,38.5,30.07,West,265,0.0,0.0,97,0.00,,,0.00,0.00,VWS V14.01,2013-01-13 08:38:00,
2013-01-13 03:40:00,39.3,38.5,30.07,West,265,0.0,0.0,97,0.00,,,0.00,0.00,VWS V14.01,2013-01-13 08:40:00,
2013-01-13 03:44:00,39.2,38.4,30.07,West,265,0.0,0.0,97,0.00,,,0.00,0.00,VWS V14.01,2013-01-13 08:44:00,
2013-01-13 03:45:00,39.2,38.4,30.08,West,265,1.0,1.0,97,0.00,,,0.00,0.00,VWS V14.01,2013-01-13 08:45:00,
2013-01-13 03:47:00,39.1,38.3,30.08,West,265,0.0,1.0,97,0.00,,,0.00,0.00,VWS V14.01,2013-01-13 08:47:00,
2013-01-13 03:52:00,39.0,38.2,30.08,SSW,199,0.0,2.0,97,0.00,,,0.00,0.00,VWS V14.01,2013-01-13 08:52:00,
2013-01-13 03:54:00,39.0,38.2,30.07,SSW,199,0.0,2.0,97,0.00,,,0.00,0.00,VWS V14.01,2013-01-13 08:54:00,
2013-01-13 03:57:00,39.1,38.3,30.07,SSW,199,0.0,2.0,97,0.00,,,0.00,0.00,VWS V14.01,2013-01-13 08:57:00,
2013-01-13 03:59:00,39.1,38.3,30.07,SSW,199,0.0,2.0,97,0.00,,,0.00,0.00,VWS V14.01,2013-01-13 08:59:00,
2013-01-13 04:02:00,39.1,38.3,30.07,South,180,0.0,2.0,97,0.00,,,0.00,0.00,VWS V14.01,2013-01-13 09:02:00,
2013-01-13 04:05:00,39.1,38.3,30.07,South,180,0.0,2.0,97,0.00,,,0.00,0.00,VWS V14.01,2013-01-13 09:05:00,
2013-01-13 04:06:00,39.1,38.3,30.07,South,180,0.0,0.0,97,0.00,,,0.00,0.00,VWS V14.01,2013-01-13 09:06:00,
2013-01-13 04:09:00,39.1,38.3,30.06,South,180,0.0,1.0,97,0.00,,,0.00,0.00,VWS V14.01,2013-01-13 09:09:00,
2013-01-13 04:14:00,39.2,38.4,30.06,SSE,161,0.0,1.0,97,0.00,,,0.00,0.00,VWS V14.01,2013-01-13 09:14:00,
2013-01-13 04:18:00,39.1,38.3,30.06,SSE,161,0.0,1.0,97,0.00,,,0.00,0.00,VWS V14.01,2013-01-13 09:18:00,
2013-01-13 04:19:00,39.1,38.3,30.06,SSE,161,0.0,1.0,97,0.00,,,0.00,0.00,VWS V14.01,2013-01-13 09:19:00,
2013-01-13 04:21:00,39.1,38.3,30.06,SSE,161,0.0,1.0,97,0.00,,,0.00,0.00,VWS V14.01,2013-01-13 09:21:00,
2013-01-13 04:23:00,39.1,38.3,30.06,SSE,161,0.0,1.0,97,0.00,,,0.00,0.00,VWS V14.01,2013-01-13 09:23:00,
2013-01-13 04:24:00,39.1,38.3,30.06,SSE,161,0.0,1.0,97,0.00,,,0.00,0.00,VWS V14.01,2013-01-13 09:24:00,
2013-01-13 04:26:00,39.1,38.3,30.06,SSE,161,0.0,1.0,97,0.00,,,0.00,0.00,VWS V14.01,2013-01-13 09:26:00,
2013-01-13 04:28:00,39.1,38.3,30.05,SSE,161,0.0,1.0,97,0.00,,,0.00,0.00,VWS V14.01,2013-01-13 09:28:00,
2013-01-13 04:30:00,39.1,38.3,30.05,SSE,161,0.0,1.0,97,0.00,,,0.00,0.00,VWS V14.01,2013-01-13 09:30:00,
2013-01-13 04:31:00,39.2,38.4,30.05,SSE,161,0.0,1.0,97,0.00,,,0.00,0.00,VWS V14.01,2013-01-13 09:31:00,
2013-01-13 04:36:00,39.1,38.3,30.05,SSE,161,0.0,1.0,97,0.00,,,0.00,0.00,VWS V14.01,2013-01-13 09:36:00,
2013-01-13 04:38:00,39.1,38.3,30.05,SSE,161,0.0,1.0,97,0.00,,,0.00,0.00,VWS V14.01,2013-01-13 09:38:00,
2013-01-13 04:41:00,39.1,38.3,30.06,SSE,161,0.0,1.0,97,0.00,,,0.00,0.00,VWS V14.01,2013-01-13 09:41:00,
2013-01-13 04:43:00,39.1,38.3,30.05,SSE,161,0.0,1.0,97,0.00,,,0.00,0.00,VWS V14.01,2013-01-13 09:43:00,
2013-01-13 04:45:00,39.1,38.3,30.05,SSE,161,0.0,1.0,97,0.00,,,0.00,0.00,VWS V14.01,2013-01-13 09:45:00,
2013-01-13 04:47:00,39.1,38.3,30.04,SSE,161,0.0,1.0,97,0.00,,,0.00,0.00,VWS V14.01,2013-01-13 09:47:00,
2013-01-13 04:48:00,39.0,38.2,30.04,SSE,161,0.0,1.0,97,0.00,,,0.00,0.00,VWS V14.01,2013-01-13 09:48:00,
2013-01-13 04:52:00,38.9,38.1,30.04,SSE,161,0.0,1.0,97,0.00,,,0.00,0.00,VWS V14.01,2013-01-13 09:52:00,
2013-01-13 04:53:00,38.7,37.9,30.05,SSE,161,0.0,1.0,97,0.00,,,0.00,0.00,VWS V14.01,2013-01-13 09:53:00,
2013-01-13 04:55:00,38.6,37.8,30.05,SSE,161,0.0,1.0,97,0.00,,,0.00,0.00,VWS V14.01,2013-01-13 09:55:00,
2013-01-13 04:57:00,38.5,37.7,30.05,SSE,161,0.0,1.0,97,0.00,,,0.00,0.00,VWS V14.01,2013-01-13 09:57:00,
2013-01-13 05:00:00,38.5,37.7,30.05,SSE,161,0.0,1.0,97,0.00,,,0.00,0.00,VWS V14.01,2013-01-13 10:00:00,
2013-01-13 05:02:00,38.4,37.6,30.05,SSE,161,0.0,1.0,97,0.00,,,0.00,0.00,VWS V14.01,2013-01-13 10:02:00,
2013-01-13 05:04:00,38.3,37.5,30.05,SSE,161,0.0,1.0,97,0.00,,,0.00,0.00,VWS V14.01,2013-01-13 10:04:00,
2013-01-13 05:05:00,38.3,37.5,30.05,SSE,161,0.0,1.0,97,0.00,,,0.00,0.00,VWS V14.01,2013-01-13 10:05:00,
2013-01-13 05:07:00,38.2,37.4,30.05,SSE,161,0.0,0.0,97,0.00,,,0.00,0.00,VWS V14.01,2013-01-13 10:07:00,
2013-01-13 05:09:00,38.2,37.4,30.05,SSE,161,0.0,0.0,97,0.00,,,0.00,0.00,VWS V14.01,2013-01-13 10:09:00,
2013-01-13 05:10:00,38.1,37.3,30.05,SSE,161,0.0,0.0,97,0.00,,,0.00,0.00,VWS V14.01,2013-01-13 10:10:00,
2013-01-13 05:12:00,38.1,37.3,30.06,SSE,161,0.0,0.0,97,0.00,,,0.00,0.00,VWS V14.01,2013-01-13 10:12:00,
2013-01-13 05:14:00,38.0,37.2,30.06,SSE,161,0.0,0.0,97,0.00,,,0.00,0.00,VWS V14.01,2013-01-13 10:14:00,
2013-01-13 05:17:00,37.9,37.1,30.06,SSE,161,0.0,0.0,97,0.00,,,0.00,0.00,VWS V14.01,2013-01-13 10:17:00,
2013-01-13 05:19:00,37.9,37.1,30.06,SSE,161,0.0,0.0,97,0.00,,,0.00,0.00,VWS V14.01,2013-01-13 10:19:00,
2013-01-13 05:21:00,37.9,37.1,30.06,SSE,161,0.0,0.0,97,0.00,,,0.00,0.00,VWS V14.01,2013-01-13 10:21:00,
2013-01-13 05:22:00,37.9,37.1,30.06,SSE,161,0.0,0.0,97,0.00,,,0.00,0.00,VWS V14.01,2013-01-13 10:22:00,
2013-01-13 05:26:00,37.9,37.1,30.06,SSE,161,0.0,0.0,97,0.00,,,0.00,0.00,VWS V14.01,2013-01-13 10:26:00,
2013-01-13 05:27:00,37.9,37.1,30.06,SSE,161,0.0,0.0,97,0.00,,,0.00,0.00,VWS V14.01,2013-01-13 10:27:00,
2013-01-13 05:29:00,37.9,37.1,30.06,SSE,161,0.0,0.0,97,0.00,,,0.00,0.00,VWS V14.01,2013-01-13 10:29:00,
2013-01-13 05:31:00,37.9,37.1,30.06,SSE,161,0.0,0.0,97,0.00,,,0.00,0.00,VWS V14.01,2013-01-13 10:31:00,
2013-01-13 05:34:00,38.0,37.2,30.06,SSE,161,0.0,1.0,97,0.00,,,0.00,0.00,VWS V14.01,2013-01-13 10:34:00,
2013-01-13 05:38:00,38.3,37.5,30.06,SSE,161,0.0,1.0,97,0.00,,,0.00,0.00,VWS V14.01,2013-01-13 10:38:00,
2013-01-13 05:39:00,38.4,37.6,30.06,SSE,161,0.0,1.0,97,0.00,,,0.00,0.00,VWS V14.01,2013-01-13 10:39:00,
2013-01-13 05:43:00,38.5,37.7,30.06,SSE,161,0.0,1.0,97,0.00,,,0.00,0.00,VWS V14.01,2013-01-13 10:43:00,
2013-01-13 05:44:00,38.5,37.7,30.06,SSE,161,0.0,1.0,97,0.00,,,0.00,0.00,VWS V14.01,2013-01-13 10:44:00,
2013-01-13 05:46:00,38.6,37.8,30.06,SSE,161,0.0,1.0,97,0.00,,,0.00,0.00,VWS V14.01,2013-01-13 10:46:00,
2013-01-13 05:48:00,38.6,37.8,30.06,SSE,161,0.0,1.0,97,0.00,,,0.00,0.00,VWS V14.01,2013-01-13 10:48:00,
2013-01-13 05:51:00,38.7,37.9,30.06,SSE,161,0.0,1.0,97,0.00,,,0.00,0.00,VWS V14.01,2013-01-13 10:51:00,
2013-01-13 05:59:00,38.8,38.0,30.06,SSW,194,0.0,1.0,97,0.00,,,0.00,0.00,VWS V14.01,2013-01-13 10:59:00,
2013-01-13 06:01:00,38.9,38.1,30.06,SSW,194,0.0,1.0,97,0.00,,,0.00,0.00,VWS V14.01,2013-01-13 11:01:00,
2013-01-13 06:04:00,38.9,38.1,30.06,SSW,194,0.0,1.0,97,0.00,,,0.00,0.00,VWS V14.01,2013-01-13 11:04:00,
2013-01-13 06:06:00,38.9,38.1,30.06,South,178,0.0,0.0,97,0.00,,,0.00,0.00,VWS V14.01,2013-01-13 11:06:00,
2013-01-13 06:09:00,39.0,38.2,30.06,South,178,0.0,0.0,97,0.00,,,0.00,0.00,VWS V14.01,2013-01-13 11:09:00,
2013-01-13 06:11:00,39.0,38.2,30.06,South,178,0.0,0.0,97,0.00,,,0.00,0.00,VWS V14.01,2013-01-13 11:11:00,
2013-01-13 06:14:00,39.1,38.3,30.06,South,178,0.0,0.0,97,0.00,,,0.00,0.00,VWS V14.01,2013-01-13 11:14:00,
2013-01-13 06:16:00,39.1,38.3,30.06,South,178,0.0,0.0,97,0.00,,,0.00,0.00,VWS V14.01,2013-01-13 11:16:00,
2013-01-13 06:20:00,39.2,38.4,30.07,South,178,1.0,1.0,97,0.00,,,0.00,0.00,VWS V14.01,2013-01-13 11:20:00,
2013-01-13 06:21:00,39.3,38.5,30.06,South,178,0.0,1.0,97,0.00,,,0.00,0.00,VWS V14.01,2013-01-13 11:21:00,
2013-01-13 06:26:00,39.3,38.5,30.07,South,178,0.0,1.0,97,0.00,,,0.00,0.00,VWS V14.01,2013-01-13 11:26:00,
2013-01-13 06:28:00,39.3,38.5,30.07,South,178,0.0,1.0,97,0.00,,,0.00,0.00,VWS V14.01,2013-01-13 11:28:00,
2013-01-13 06:30:00,39.3,38.5,30.07,South,178,0.0,1.0,97,0.00,,,0.00,0.00,VWS V14.01,2013-01-13 11:30:00,
2013-01-13 06:35:00,39.3,38.5,30.07,South,178,0.0,1.0,97,0.00,,,0.00,0.00,VWS V14.01,2013-01-13 11:35:00,
2013-01-13 06:37:00,39.2,38.4,30.07,South,178,0.0,1.0,97,0.00,,,0.00,0.00,VWS V14.01,2013-01-13 11:37:00,
2013-01-13 06:38:00,39.2,38.4,30.07,SSW,193,0.0,1.0,97,0.00,,,0.00,0.00,VWS V14.01,2013-01-13 11:38:00,
2013-01-13 06:42:00,39.2,38.4,30.07,SSW,193,0.0,1.0,97,0.00,,,0.00,0.00,VWS V14.01,2013-01-13 11:42:00,
2013-01-13 06:47:00,38.9,38.1,30.07,SSW,193,0.0,1.0,97,0.00,,,0.00,0.00,VWS V14.01,2013-01-13 11:47:00,
2013-01-13 06:50:00,38.8,38.0,30.08,SSW,193,0.0,1.0,97,0.00,,,0.00,0.00,VWS V14.01,2013-01-13 11:50:00,
2013-01-13 06:56:00,38.6,37.8,30.08,West,264,0.0,3.0,97,0.00,,,0.00,0.00,VWS V14.01,2013-01-13 11:56:00,
2013-01-13 06:57:00,38.6,37.8,30.08,WSW,253,0.0,3.0,97,0.00,,,0.00,0.00,VWS V14.01,2013-01-13 11:57:00,
2013-01-13 06:59:00,38.6,37.8,30.08,WSW,253,0.0,3.0,97,0.00,,,0.00,0.00,VWS V14.01,2013-01-13 11:59:00,
2013-01-13 07:01:00,38.7,37.9,30.07,SSE,165,0.0,4.0,97,0.00,,,0.00,0.00,VWS V14.01,2013-01-13 12:01:00,
2013-01-13 07:02:00,38.8,38.0,30.07,SSE,165,0.0,4.0,97,0.00,,,0.00,0.00,VWS V14.01,2013-01-13 12:02:00,
2013-01-13 07:06:00,39.0,38.2,30.07,SW,217,0.0,2.0,97,0.00,,,0.00,0.00,VWS V14.01,2013-01-13 12:06:00,
2013-01-13 07:09:00,39.1,38.3,30.07,SW,217,0.0,2.0,97,0.00,,,0.00,0.00,VWS V14.01,2013-01-13 12:09:00,
2013-01-13 07:14:00,39.3,38.5,30.08,South,171,0.0,3.0,97,0.00,,,0.00,0.00,VWS V14.01,2013-01-13 12:14:00,
2013-01-13 07:16:00,39.3,38.5,30.08,SSW,207,0.0,3.0,97,0.00,,,0.00,0.00,VWS V14.01,2013-01-13 12:16:00,
2013-01-13 07:19:00,39.4,38.6,30.08,SSW,206,0.0,3.0,97,0.00,,,0.00,0.00,VWS V14.01,2013-01-13 12:19:00,
2013-01-13 07:21:00,39.5,38.7,30.09,WSW,241,0.0,3.0,97,0.00,,,0.00,0.00,VWS V14.01,2013-01-13 12:21:00,
2013-01-13 07:23:00,39.5,38.7,30.09,West,269,0.0,3.0,97,0.00,,,0.00,0.00,VWS V14.01,2013-01-13 12:23:00,
2013-01-13 07:25:00,39.6,38.8,30.08,SW,227,1.0,3.0,97,0.00,,,0.00,0.00,VWS V14.01,2013-01-13 12:25:00,
2013-01-13 07:28:00,39.6,38.8,30.08,West,263,0.0,3.0,97,0.00,,,0.00,5.00,VWS V14.01,2013-01-13 12:28:00,
2013-01-13 07:30:00,39.7,38.9,30.09,West,263,0.0,3.0,97,0.00,,,0.00,5.00,VWS V14.01,2013-01-13 12:30:00,
2013-01-13 07:31:00,39.7,38.9,30.09,West,263,0.0,3.0,97,0.00,,,0.00,5.00,VWS V14.01,2013-01-13 12:31:00,
2013-01-13 07:35:00,39.7,38.9,30.08,WSW,244,0.0,3.0,97,0.00,,,0.00,9.00,VWS V14.01,2013-01-13 12:35:00,
2013-01-13 07:37:00,39.7,38.9,30.08,WSW,243,0.0,3.0,97,0.00,,,0.00,11.00,VWS V14.01,2013-01-13 12:37:00,
2013-01-13 07:40:00,39.8,39.0,30.08,SSW,211,0.0,3.0,97,0.00,,,0.00,12.00,VWS V14.01,2013-01-13 12:40:00,
2013-01-13 07:42:00,39.8,39.0,30.08,SSW,211,0.0,3.0,97,0.00,,,0.00,12.00,VWS V14.01,2013-01-13 12:42:00,
2013-01-13 07:45:00,39.8,39.0,30.08,SSW,211,0.0,3.0,97,0.00,,,0.00,14.00,VWS V14.01,2013-01-13 12:45:00,
2013-01-13 07:47:00,39.8,39.0,30.08,SSW,211,0.0,3.0,97,0.00,,,0.00,16.00,VWS V14.01,2013-01-13 12:47:00,
2013-01-13 07:49:00,39.8,39.0,30.08,South,180,0.0,3.0,97,0.00,,,0.00,18.00,VWS V14.01,2013-01-13 12:49:00,
2013-01-13 07:54:00,39.8,39.0,30.08,South,180,0.0,3.0,97,0.00,,,0.00,23.00,VWS V14.01,2013-01-13 12:54:00,
2013-01-13 07:55:00,39.8,39.0,30.08,SSW,208,0.0,3.0,97,0.00,,,0.00,23.00,VWS V14.01,2013-01-13 12:55:00,
2013-01-13 07:59:00,39.8,39.0,30.08,WSW,247,0.0,3.0,97,0.00,,,0.00,25.00,VWS V14.01,2013-01-13 12:59:00,
2013-01-13 08:04:00,39.9,39.1,30.08,WSW,247,0.0,3.0,97,0.00,,,0.00,32.00,VWS V14.01,2013-01-13 13:04:00,
2013-01-13 08:05:00,39.9,39.1,30.08,WSW,247,0.0,3.0,97,0.00,,,0.00,42.00,VWS V14.01,2013-01-13 13:05:00,
2013-01-13 08:07:00,39.9,39.1,30.08,SSE,156,1.0,1.0,97,0.00,,,0.00,33.00,VWS V14.01,2013-01-13 13:07:00,
2013-01-13 08:09:00,40.0,39.2,30.09,South,173,0.0,1.0,97,0.00,,,0.00,32.00,VWS V14.01,2013-01-13 13:09:00,
2013-01-13 08:14:00,39.9,39.1,30.08,South,173,0.0,1.0,97,0.00,,,0.00,30.00,VWS V14.01,2013-01-13 13:14:00,
2013-01-13 08:16:00,39.9,39.1,30.08,South,173,0.0,1.0,97,0.00,,,0.00,32.00,VWS V14.01,2013-01-13 13:16:00,
2013-01-13 08:18:00,40.0,39.2,30.08,South,173,0.0,1.0,97,0.00,,,0.00,33.00,VWS V14.01,2013-01-13 13:18:00,
2013-01-13 08:19:00,40.0,39.2,30.08,SSE,157,0.0,1.0,97,0.00,,,0.00,35.00,VWS V14.01,2013-01-13 13:19:00,
2013-01-13 08:21:00,40.0,39.2,30.07,SSE,157,0.0,1.0,97,0.00,,,0.00,35.00,VWS V14.01,2013-01-13 13:21:00,
2013-01-13 08:24:00,40.1,39.3,30.08,SW,215,0.0,1.0,97,0.00,,,0.00,30.00,VWS V14.01,2013-01-13 13:24:00,
2013-01-13 08:26:00,40.1,39.3,30.08,SW,215,0.0,1.0,97,0.00,,,0.00,30.00,VWS V14.01,2013-01-13 13:26:00,
2013-01-13 08:28:00,40.1,39.3,30.07,SW,215,0.0,1.0,97,0.00,,,0.00,35.00,VWS V14.01,2013-01-13 13:28:00,
2013-01-13 08:30:00,40.1,39.3,30.08,SW,215,0.0,1.0,97,0.00,,,0.00,37.00,VWS V14.01,2013-01-13 13:30:00,
2013-01-13 08:33:00,40.2,39.4,30.08,SW,215,0.0,1.0,97,0.00,,,0.00,37.00,VWS V14.01,2013-01-13 13:33:00,
2013-01-13 08:35:00,40.2,39.4,30.08,SSW,203,0.0,2.0,97,0.00,,,0.00,40.00,VWS V14.01,2013-01-13 13:35:00,
2013-01-13 08:37:00,40.2,39.4,30.08,SSW,203,0.0,2.0,97,0.00,,,0.00,44.00,VWS V14.01,2013-01-13 13:37:00,
2013-01-13 08:38:00,40.2,39.4,30.08,SSW,203,0.0,2.0,97,0.00,,,0.00,47.00,VWS V14.01,2013-01-13 13:38:00,
2013-01-13 08:43:00,40.3,39.5,30.08,SSW,203,0.0,2.0,97,0.00,,,0.00,67.00,VWS V14.01,2013-01-13 13:43:00,
2013-01-13 08:48:00,40.4,39.6,30.09,SSW,203,0.0,2.0,97,0.00,,,0.00,77.00,VWS V14.01,2013-01-13 13:48:00,
2013-01-13 08:52:00,40.4,39.6,30.09,SSW,203,0.0,2.0,97,0.00,,,0.00,88.00,VWS V14.01,2013-01-13 13:52:00,
2013-01-13 08:54:00,40.5,39.7,30.09,SSW,203,0.0,2.0,97,0.00,,,0.00,100.00,VWS V14.01,2013-01-13 13:54:00,
2013-01-13 08:55:00,40.6,39.8,30.09,SSW,203,0.0,2.0,97,0.00,,,0.00,116.00,VWS V14.01,2013-01-13 13:55:00,
2013-01-13 08:57:00,40.6,39.8,30.09,SSW,203,0.0,2.0,97,0.00,,,0.00,91.00,VWS V14.01,2013-01-13 13:57:00,
2013-01-13 08:59:00,40.6,39.8,30.09,SSW,203,0.0,2.0,97,0.00,,,0.00,86.00,VWS V14.01,2013-01-13 13:59:00,
2013-01-13 09:00:00,40.7,39.9,30.09,SSW,203,0.0,2.0,97,0.00,,,0.00,88.00,VWS V14.01,2013-01-13 14:00:00,
2013-01-13 09:02:00,40.7,39.9,30.09,SSW,203,0.0,2.0,97,0.00,,,0.00,93.00,VWS V14.01,2013-01-13 14:02:00,
2013-01-13 09:05:00,40.8,40.0,30.09,SSW,203,0.0,2.0,97,0.00,,,0.00,114.00,VWS V14.01,2013-01-13 14:05:00,
2013-01-13 09:06:00,40.8,40.0,30.09,SSW,203,0.0,0.0,97,0.00,,,0.00,114.00,VWS V14.01,2013-01-13 14:06:00,
2013-01-13 09:11:00,40.9,40.4,30.09,SSW,202,1.0,1.0,98,0.00,,,0.00,97.00,VWS V14.01,2013-01-13 14:11:00,
2013-01-13 09:14:00,41.1,40.6,30.09,SW,215,0.0,1.0,98,0.00,,,0.00,97.00,VWS V14.01,2013-01-13 14:14:00,
2013-01-13 09:16:00,41.1,40.6,30.09,SW,215,0.0,1.0,98,0.00,,,0.00,97.00,VWS V14.01,2013-01-13 14:16:00,
2013-01-13 09:19:00,41.2,40.4,30.08,SSE,168,4.0,5.0,97,0.00,,,0.00,97.00,VWS V14.01,2013-01-13 14:19:00,
2013-01-13 09:23:00,41.4,40.6,30.09,SSE,151,0.0,5.0,97,0.00,,,0.00,97.00,VWS V14.01,2013-01-13 14:23:00,
2013-01-13 09:24:00,41.5,41.0,30.09,South,190,1.0,5.0,98,0.00,,,0.00,91.00,VWS V14.01,2013-01-13 14:24:00,
2013-01-13 09:26:00,41.5,41.0,30.09,South,190,0.0,5.0,98,0.00,,,0.00,91.00,VWS V14.01,2013-01-13 14:26:00,
2013-01-13 09:29:00,41.6,41.1,30.09,South,190,1.0,5.0,98,0.00,,,0.00,90.00,VWS V14.01,2013-01-13 14:29:00,
2013-01-13 09:31:00,41.6,41.1,30.09,South,190,0.0,5.0,98,0.00,,,0.00,83.00,VWS V14.01,2013-01-13 14:31:00,
2013-01-13 09:35:00,41.6,41.1,30.09,South,190,0.0,5.0,98,0.00,,,0.00,84.00,VWS V14.01,2013-01-13 14:35:00,
2013-01-13 09:36:00,41.6,41.1,30.09,South,190,0.0,5.0,98,0.00,,,0.00,84.00,VWS V14.01,2013-01-13 14:36:00,
2013-01-13 09:38:00,41.7,41.2,30.10,SSW,200,1.0,5.0,98,0.00,,,0.00,81.00,VWS V14.01,2013-01-13 14:38:00,
2013-01-13 09:43:00,41.7,41.2,30.10,South,180,4.0,5.0,98,0.00,,,0.00,84.00,VWS V14.01,2013-01-13 14:43:00,
2013-01-13 09:45:00,41.7,41.2,30.10,South,182,0.0,5.0,98,0.00,,,0.00,84.00,VWS V14.01,2013-01-13 14:45:00,
2013-01-13 09:47:00,41.8,41.3,30.10,South,169,0.0,5.0,98,0.00,,,0.00,72.00,VWS V14.01,2013-01-13 14:47:00,
2013-01-13 09:52:00,41.7,41.2,30.10,South,169,0.0,5.0,98,0.00,,,0.00,51.00,VWS V14.01,2013-01-13 14:52:00,
2013-01-13 09:53:00,41.7,41.2,30.10,South,178,1.0,5.0,98,0.00,,,0.00,56.00,VWS V14.01,2013-01-13 14:53:00,
2013-01-13 09:59:00,41.8,41.3,30.10,South,184,0.0,6.0,98,0.00,,,0.00,81.00,VWS V14.01,2013-01-13 14:59:00,
2013-01-13 10:00:00,41.8,41.3,30.09,South,169,0.0,6.0,98,0.00,,,0.00,111.00,VWS V14.01,2013-01-13 15:00:00,
2013-01-13 10:02:00,41.8,41.3,30.09,South,169,0.0,6.0,98,0.00,,,0.00,144.00,VWS V14.01,2013-01-13 15:02:00,
2013-01-13 10:05:00,41.8,41.0,30.09,South,169,0.0,6.0,97,0.00,,,0.00,130.00,VWS V14.01,2013-01-13 15:05:00,
2013-01-13 10:07:00,41.9,41.1,30.09,South,169,0.0,0.0,97,0.00,,,0.00,63.00,VWS V14.01,2013-01-13 15:07:00,
2013-01-13 10:10:00,41.9,41.1,30.09,South,171,0.0,1.0,97,0.00,,,0.00,54.00,VWS V14.01,2013-01-13 15:10:00,
2013-01-13 10:12:00,41.8,41.0,30.09,South,171,0.0,1.0,97,0.00,,,0.00,51.00,VWS V14.01,2013-01-13 15:12:00,
2013-01-13 10:16:00,41.9,41.1,30.09,South,171,0.0,1.0,97,0.00,,,0.00,130.00,VWS V14.01,2013-01-13 15:16:00,
2013-01-13 10:17:00,41.9,41.1,30.09,South,181,0.0,2.0,97,0.00,,,0.00,132.00,VWS V14.01,2013-01-13 15:17:00,
2013-01-13 10:19:00,42.0,41.2,30.09,South,181,0.0,2.0,97,0.00,,,0.00,139.00,VWS V14.01,2013-01-13 15:19:00,
2013-01-13 10:24:00,42.1,41.3,30.09,South,181,0.0,2.0,97,0.00,,,0.00,148.00,VWS V14.01,2013-01-13 15:24:00,
2013-01-13 10:28:00,42.2,41.7,30.09,South,178,0.0,2.0,98,0.00,,,0.00,160.00,VWS V14.01,2013-01-13 15:28:00,
2013-01-13 10:29:00,42.3,41.8,30.09,South,178,0.0,2.0,98,0.00,,,0.00,162.00,VWS V14.01,2013-01-13 15:29:00,
2013-01-13 10:31:00,42.3,41.8,30.09,South,178,0.0,2.0,98,0.00,,,0.00,111.00,VWS V14.01,2013-01-13 15:31:00,
2013-01-13 10:34:00,42.5,42.0,30.09,South,178,0.0,2.0,98,0.00,,,0.00,151.00,VWS V14.01,2013-01-13 15:34:00,
2013-01-13 10:36:00,42.5,42.0,30.09,South,169,0.0,2.0,98,0.00,,,0.00,144.00,VWS V14.01,2013-01-13 15:36:00,
2013-01-13 10:40:00,42.7,42.2,30.09,South,169,0.0,2.0,98,0.00,,,0.00,148.00,VWS V14.01,2013-01-13 15:40:00,
2013-01-13 10:41:00,42.7,41.9,30.09,South,169,0.0,2.0,97,0.00,,,0.00,148.00,VWS V14.01,2013-01-13 15:41:00,
2013-01-13 10:43:00,42.7,42.2,30.09,South,169,0.0,2.0,98,0.00,,,0.00,155.00,VWS V14.01,2013-01-13 15:43:00,
2013-01-13 10:45:00,42.8,42.3,30.09,South,183,0.0,2.0,98,0.00,,,0.00,156.00,VWS V14.01,2013-01-13 15:45:00,
2013-01-13 10:48:00,42.9,42.4,30.09,SSW,193,1.0,2.0,98,0.00,,,0.00,165.00,VWS V14.01,2013-01-13 15:48:00,
2013-01-13 10:50:00,42.9,42.4,30.09,SSW,193,0.0,2.0,98,0.00,,,0.00,162.00,VWS V14.01,2013-01-13 15:50:00,
2013-01-13 10:52:00,42.9,42.4,30.08,SW,217,0.0,2.0,98,0.00,,,0.00,162.00,VWS V14.01,2013-01-13 15:52:00,
2013-01-13 10:53:00,43.0,42.5,30.08,SW,217,1.0,2.0,98,0.00,,,0.00,158.00,VWS V14.01,2013-01-13 15:53:00,
2013-01-13 10:57:00,43.1,42.6,30.08,SSE,161,0.0,2.0,98,0.00,,,0.00,163.00,VWS V14.01,2013-01-13 15:57:00,
2013-01-13 10:58:00,43.1,42.6,30.08,SSE,163,0.0,2.0,98,0.00,,,0.00,160.00,VWS V14.01,2013-01-13 15:58:00,
2013-01-13 11:02:00,43.1,42.6,30.08,South,186,0.0,6.0,98,0.00,,,0.00,169.00,VWS V14.01,2013-01-13 16:02:00,
2013-01-13 11:03:00,43.1,42.6,30.08,SW,215,2.0,6.0,98,0.00,,,0.00,179.00,VWS V14.01,2013-01-13 16:03:00,
2013-01-13 11:05:00,43.1,42.6,30.08,SSW,207,0.0,0.0,98,0.00,,,0.00,181.00,VWS V14.01,2013-01-13 16:05:00,
2013-01-13 11:09:00,43.2,42.7,30.08,SSE,167,0.0,7.0,98,0.00,,,0.00,190.00,VWS V14.01,2013-01-13 16:09:00,
2013-01-13 11:10:00,43.2,42.7,30.07,South,169,2.0,7.0,98,0.00,,,0.00,192.00,VWS V14.01,2013-01-13 16:10:00,
2013-01-13 11:12:00,43.2,42.7,30.07,South,169,0.0,7.0,98,0.00,,,0.00,192.00,VWS V14.01,2013-01-13 16:12:00,
2013-01-13 11:15:00,43.4,42.9,30.07,SW,229,0.0,7.0,98,0.00,,,0.00,165.00,VWS V14.01,2013-01-13 16:15:00,
2013-01-13 11:17:00,43.4,42.9,30.07,SW,229,0.0,7.0,98,0.00,,,0.00,179.00,VWS V14.01,2013-01-13 16:17:00,
2013-01-13 11:22:00,43.4,42.9,30.07,SSW,205,2.0,7.0,98,0.00,,,0.00,142.00,VWS V14.01,2013-01-13 16:22:00,
2013-01-13 11:24:00,43.4,42.9,30.07,SSW,201,0.0,7.0,98,0.00,,,0.00,148.00,VWS V14.01,2013-01-13 16:24:00,
2013-01-13 11:27:00,43.4,42.9,30.07,SW,215,0.0,7.0,98,0.00,,,0.00,153.00,VWS V14.01,2013-01-13 16:27:00,
2013-01-13 11:29:00,43.4,42.9,30.07,SW,215,0.0,7.0,98,0.00,,,0.00,156.00,VWS V14.01,2013-01-13 16:29:00,
2013-01-13 11:32:00,43.4,42.9,30.07,SW,215,0.0,7.0,98,0.00,,,0.00,146.00,VWS V14.01,2013-01-13 16:32:00,
2013-01-13 11:34:00,43.4,42.9,30.07,SW,215,0.0,7.0,98,0.00,,,0.00,127.00,VWS V14.01,2013-01-13 16:34:00,
2013-01-13 11:37:00,43.5,43.0,30.07,SSW,194,2.0,7.0,98,0.00,,,0.00,127.00,VWS V14.01,2013-01-13 16:37:00,
2013-01-13 11:39:00,43.5,43.0,30.07,South,186,0.0,7.0,98,0.00,,,0.00,123.00,VWS V14.01,2013-01-13 16:39:00,
2013-01-13 11:41:00,43.6,43.1,30.06,SSE,165,2.0,7.0,98,0.00,,,0.00,128.00,VWS V14.01,2013-01-13 16:41:00,
2013-01-13 11:43:00,43.6,43.1,30.06,SSW,198,1.0,7.0,98,0.00,,,0.00,132.00,VWS V14.01,2013-01-13 16:43:00,
2013-01-13 11:46:00,43.5,43.0,30.06,SSE,161,0.0,7.0,98,0.00,,,0.00,134.00,VWS V14.01,2013-01-13 16:46:00,
2013-01-13 11:48:00,43.5,43.0,30.06,SSE,161,0.0,7.0,98,0.00,,,0.00,141.00,VWS V14.01,2013-01-13 16:48:00,
2013-01-13 11:53:00,43.6,43.1,30.06,SSE,165,0.0,7.0,98,0.00,,,0.00,148.00,VWS V14.01,2013-01-13 16:53:00,
2013-01-13 11:55:00,43.6,43.1,30.06,SSE,156,1.0,7.0,98,0.00,,,0.00,128.00,VWS V14.01,2013-01-13 16:55:00,
2013-01-13 11:58:00,43.7,43.2,30.05,South,170,0.0,7.0,98,0.00,,,0.00,137.00,VWS V14.01,2013-01-13 16:58:00,
2013-01-13 12:00:00,43.8,43.3,30.05,South,170,0.0,7.0,98,0.00,,,0.00,160.00,VWS V14.01,2013-01-13 17:00:00,
2013-01-13 12:03:00,43.9,43.4,30.05,South,172,0.0,7.0,98,0.00,,,0.00,141.00,VWS V14.01,2013-01-13 17:03:00,
2013-01-13 12:06:00,44.0,43.5,30.05,South,172,0.0,1.0,98,0.00,,,0.00,162.00,VWS V14.01,2013-01-13 17:06:00,
2013-01-13 12:08:00,44.0,43.5,30.05,South,171,0.0,2.0,98,0.00,,,0.00,165.00,VWS V14.01,2013-01-13 17:08:00,
2013-01-13 12:10:00,44.0,43.5,30.04,SE,146,1.0,2.0,98,0.00,,,0.00,142.00,VWS V14.01,2013-01-13 17:10:00,
2013-01-13 12:12:00,44.0,43.5,30.04,South,184,0.0,4.0,98,0.00,,,0.00,153.00,VWS V14.01,2013-01-13 17:12:00,
2013-01-13 12:15:00,44.0,43.5,30.05,South,173,0.0,4.0,98,0.00,,,0.00,179.00,VWS V14.01,2013-01-13 17:15:00,
2013-01-13 12:17:00,44.0,43.5,30.05,South,170,0.0,4.0,98,0.00,,,0.00,114.00,VWS V14.01,2013-01-13 17:17:00,
2013-01-13 12:20:00,43.9,43.4,30.04,South,170,0.0,4.0,98,0.00,,,0.00,169.00,VWS V14.01,2013-01-13 17:20:00,
2013-01-13 12:22:00,43.9,43.4,30.04,South,170,1.0,4.0,98,0.00,,,0.00,74.00,VWS V14.01,2013-01-13 17:22:00,
2013-01-13 12:25:00,44.0,43.5,30.04,South,170,0.0,4.0,98,0.00,,,0.00,142.00,VWS V14.01,2013-01-13 17:25:00,
2013-01-13 12:27:00,44.1,43.6,30.04,SSW,192,0.0,4.0,98,0.00,,,0.00,58.00,VWS V14.01,2013-01-13 17:27:00,
2013-01-13 12:29:00,44.1,43.6,30.04,ESE,115,0.0,4.0,98,0.00,,,0.00,132.00,VWS V14.01,2013-01-13 17:29:00,
2013-01-13 12:30:00,44.2,43.7,30.04,SE,136,0.0,4.0,98,0.00,,,0.00,111.00,VWS V14.01,2013-01-13 17:30:00,
2013-01-13 12:36:00,44.3,43.8,30.03,SSE,163,2.0,4.0,98,0.00,,,0.00,127.00,VWS V14.01,2013-01-13 17:36:00,
2013-01-13 12:37:00,44.3,43.8,30.03,SSE,164,0.0,4.0,98,0.00,,,0.00,144.00,VWS V14.01,2013-01-13 17:37:00,
2013-01-13 12:41:00,44.4,43.9,30.03,SE,126,0.0,4.0,98,0.00,,,0.00,127.00,VWS V14.01,2013-01-13 17:41:00,
2013-01-13 12:42:00,44.4,43.9,30.03,SE,126,0.0,4.0,98,0.00,,,0.00,142.00,VWS V14.01,2013-01-13 17:42:00,
2013-01-13 12:46:00,44.4,43.9,30.03,SSE,155,0.0,4.0,98,0.00,,,0.00,123.00,VWS V14.01,2013-01-13 17:46:00,
2013-01-13 12:47:00,44.5,44.0,30.03,South,182,0.0,4.0,98,0.00,,,0.00,125.00,VWS V14.01,2013-01-13 17:47:00,
2013-01-13 12:51:00,44.4,43.9,30.03,South,178,0.0,4.0,98,0.00,,,0.00,142.00,VWS V14.01,2013-01-13 17:51:00,
2013-01-13 12:53:00,44.4,43.9,30.03,South,178,0.0,4.0,98,0.00,,,0.00,137.00,VWS V14.01,2013-01-13 17:53:00,
2013-01-13 12:58:00,44.3,43.8,30.03,South,170,0.0,4.0,98,0.00,,,0.00,120.00,VWS V14.01,2013-01-13 17:58:00,
2013-01-13 12:59:00,44.3,43.8,30.03,South,175,0.0,4.0,98,0.00,,,0.00,127.00,VWS V14.01,2013-01-13 17:59:00,
2013-01-13 13:01:00,44.4,43.9,30.03,South,175,0.0,4.0,98,0.00,,,0.00,121.00,VWS V14.01,2013-01-13 18:01:00,
2013-01-13 13:05:00,44.4,43.9,30.03,South,175,0.0,4.0,98,0.00,,,0.00,113.00,VWS V14.01,2013-01-13 18:05:00,
2013-01-13 13:06:00,44.4,43.9,30.03,South,175,0.0,1.0,98,0.00,,,0.00,118.00,VWS V14.01,2013-01-13 18:06:00,
2013-01-13 13:10:00,44.5,44.0,30.03,South,175,0.0,1.0,98,0.00,,,0.00,113.00,VWS V14.01,2013-01-13 18:10:00,
2013-01-13 13:11:00,44.5,44.0,30.04,South,182,0.0,4.0,98,0.00,,,0.00,104.00,VWS V14.01,2013-01-13 18:11:00,
2013-01-13 13:15:00,44.5,44.0,30.04,SSE,153,1.0,4.0,98,0.00,,,0.00,102.00,VWS V14.01,2013-01-13 18:15:00,
2013-01-13 13:16:00,44.5,44.0,30.03,South,184,0.0,5.0,98,0.00,,,0.00,102.00,VWS V14.01,2013-01-13 18:16:00,
2013-01-13 13:20:00,44.5,44.0,30.03,SSE,167,0.0,5.0,98,0.00,,,0.00,100.00,VWS V14.01,2013-01-13 18:20:00,
2013-01-13 13:23:00,44.6,44.1,30.03,South,187,5.0,5.0,98,0.00,,,0.00,95.00,VWS V14.01,2013-01-13 18:23:00,
2013-01-13 13:25:00,44.6,44.1,30.03,SSE,165,0.0,5.0,98,0.00,,,0.00,84.00,VWS V14.01,2013-01-13 18:25:00,
2013-01-13 13:28:00,44.6,44.1,30.03,South,181,2.0,5.0,98,0.00,,,0.00,84.00,VWS V14.01,2013-01-13 18:28:00,
2013-01-13 13:30:00,44.6,44.1,30.03,SSE,168,2.0,5.0,98,0.00,,,0.00,81.00,VWS V14.01,2013-01-13 18:30:00,
2013-01-13 13:35:00,44.5,44.0,30.02,South,178,0.0,5.0,98,0.00,,,0.00,81.00,VWS V14.01,2013-01-13 18:35:00,
2013-01-13 13:39:00,44.5,44.0,30.02,SW,215,0.0,5.0,98,0.00,,,0.00,79.00,VWS V14.01,2013-01-13 18:39:00,
2013-01-13 13:40:00,44.5,44.0,30.02,South,181,0.0,5.0,98,0.00,,,0.00,83.00,VWS V14.01,2013-01-13 18:40:00,
2013-01-13 13:42:00,44.5,44.0,30.02,South,181,0.0,5.0,98,0.00,,,0.00,88.00,VWS V14.01,2013-01-13 18:42:00,
2013-01-13 13:46:00,44.5,44.0,30.02,SE,146,0.0,5.0,98,0.00,,,0.00,88.00,VWS V14.01,2013-01-13 18:46:00,
2013-01-13 13:49:00,44.5,44.0,30.01,SSE,151,0.0,5.0,98,0.00,,,0.00,98.00,VWS V14.01,2013-01-13 18:49:00,
2013-01-13 13:51:00,44.6,44.1,30.01,SE,144,0.0,5.0,98,0.00,,,0.00,102.00,VWS V14.01,2013-01-13 18:51:00,
2013-01-13 13:56:00,44.6,44.1,30.01,South,190,0.0,5.0,98,0.00,,,0.00,84.00,VWS V14.01,2013-01-13 18:56:00,
2013-01-13 13:58:00,44.5,44.0,30.01,South,190,0.0,5.0,98,0.00,,,0.00,91.00,VWS V14.01,2013-01-13 18:58:00,
2013-01-13 13:59:00,44.6,44.1,30.01,South,190,0.0,5.0,98,0.00,,,0.00,84.00,VWS V14.01,2013-01-13 18:59:00,
2013-01-13 14:01:00,44.6,44.1,30.01,South,190,0.0,5.0,98,0.00,,,0.00,91.00,VWS V14.01,2013-01-13 19:01:00,
2013-01-13 14:04:00,44.6,44.1,30.01,SE,135,0.0,5.0,98,0.00,,,0.00,79.00,VWS V14.01,2013-01-13 19:04:00,
2013-01-13 14:05:00,44.6,44.1,30.01,SE,135,0.0,5.0,98,0.00,,,0.00,72.00,VWS V14.01,2013-01-13 19:05:00,
2013-01-13 14:08:00,44.7,44.2,30.00,SSE,162,0.0,4.0,98,0.00,,,0.00,72.00,VWS V14.01,2013-01-13 19:08:00,
2013-01-13 14:09:00,44.6,44.1,30.00,ESE,116,1.0,4.0,98,0.00,,,0.00,74.00,VWS V14.01,2013-01-13 19:09:00,
2013-01-13 14:11:00,44.7,44.2,30.00,South,181,0.0,4.0,98,0.00,,,0.00,69.00,VWS V14.01,2013-01-13 19:11:00,
2013-01-13 14:15:00,44.7,44.2,30.00,South,181,0.0,4.0,98,0.00,,,0.00,77.00,VWS V14.01,2013-01-13 19:15:00,
2013-01-13 14:18:00,44.6,44.1,30.00,South,180,0.0,4.0,98,0.00,,,0.00,88.00,VWS V14.01,2013-01-13 19:18:00,
2013-01-13 14:20:00,44.7,44.2,30.01,SE,144,0.0,4.0,98,0.00,,,0.00,83.00,VWS V14.01,2013-01-13 19:20:00,
2013-01-13 14:23:00,44.7,44.2,30.01,SE,144,0.0,4.0,98,0.00,,,0.00,65.00,VWS V14.01,2013-01-13 19:23:00,
2013-01-13 14:25:00,44.7,44.2,30.02,SSE,151,0.0,4.0,98,0.00,,,0.00,62.00,VWS V14.01,2013-01-13 19:25:00,
2013-01-13 14:27:00,44.7,44.2,30.01,WSW,242,0.0,4.0,98,0.00,,,0.00,58.00,VWS V14.01,2013-01-13 19:27:00,
2013-01-13 14:28:00,44.8,44.3,30.01,WSW,242,0.0,4.0,98,0.00,,,0.00,65.00,VWS V14.01,2013-01-13 19:28:00,
2013-01-13 14:30:00,44.8,44.3,30.01,WSW,242,0.0,4.0,98,0.00,,,0.00,69.00,VWS V14.01,2013-01-13 19:30:00,
2013-01-13 14:32:00,44.8,44.3,30.01,WSW,242,0.0,4.0,98,0.00,,,0.00,65.00,VWS V14.01,2013-01-13 19:32:00,
2013-01-13 14:33:00,44.8,44.3,30.01,WSW,242,0.0,4.0,98,0.00,,,0.00,63.00,VWS V14.01,2013-01-13 19:33:00,
2013-01-13 14:35:00,44.9,44.4,30.02,WSW,242,0.0,4.0,98,0.00,,,0.00,54.00,VWS V14.01,2013-01-13 19:35:00,
2013-01-13 14:37:00,44.8,44.3,30.01,WSW,242,0.0,4.0,98,0.00,,,0.00,51.00,VWS V14.01,2013-01-13 19:37:00,
2013-01-13 14:39:00,44.9,44.4,30.01,WSW,242,0.0,4.0,98,0.00,,,0.00,49.00,VWS V14.01,2013-01-13 19:39:00,
2013-01-13 14:40:00,44.9,44.4,30.01,WSW,242,0.0,4.0,98,0.00,,,0.00,46.00,VWS V14.01,2013-01-13 19:40:00,
2013-01-13 14:42:00,44.9,44.4,30.01,WSW,242,0.0,4.0,98,0.00,,,0.00,42.00,VWS V14.01,2013-01-13 19:42:00,
2013-01-13 14:45:00,44.9,44.4,30.01,WSW,242,0.0,4.0,98,0.00,,,0.00,46.00,VWS V14.01,2013-01-13 19:45:00,
2013-01-13 14:49:00,45.0,44.5,30.01,WSW,242,0.0,4.0,98,0.00,,,0.00,40.00,VWS V14.01,2013-01-13 19:49:00,
2013-01-13 14:52:00,45.0,44.5,30.00,WSW,242,0.0,4.0,98,0.00,,,0.00,44.00,VWS V14.01,2013-01-13 19:52:00,
2013-01-13 14:54:00,45.0,44.5,30.01,WSW,242,0.0,4.0,98,0.00,,,0.00,35.00,VWS V14.01,2013-01-13 19:54:00,
2013-01-13 14:56:00,45.0,44.5,30.00,WSW,242,0.0,4.0,98,0.00,,,0.00,37.00,VWS V14.01,2013-01-13 19:56:00,
2013-01-13 14:57:00,45.0,44.5,30.00,WSW,242,0.0,4.0,98,0.00,,,0.00,42.00,VWS V14.01,2013-01-13 19:57:00,
2013-01-13 14:59:00,45.0,44.5,30.00,WSW,242,0.0,4.0,98,0.00,,,0.00,46.00,VWS V14.01,2013-01-13 19:59:00,
2013-01-13 15:03:00,45.0,44.5,30.00,WSW,242,0.0,4.0,98,0.00,,,0.00,37.00,VWS V14.01,2013-01-13 20:03:00,
2013-01-13 15:04:00,45.1,44.6,30.00,WSW,242,0.0,4.0,98,0.00,,,0.00,35.00,VWS V14.01,2013-01-13 20:04:00,
2013-01-13 15:06:00,45.1,44.6,30.00,WSW,242,0.0,0.0,98,0.00,,,0.00,35.00,VWS V14.01,2013-01-13 20:06:00,
2013-01-13 15:08:00,45.1,44.6,30.00,WSW,242,0.0,0.0,98,0.00,,,0.00,28.00,VWS V14.01,2013-01-13 20:08:00,
2013-01-13 15:11:00,45.1,44.6,30.00,WSW,242,0.0,0.0,98,0.00,,,0.00,26.00,VWS V14.01,2013-01-13 20:11:00,
2013-01-13 15:13:00,45.1,44.6,30.00,South,177,1.0,1.0,98,0.00,,,0.00,28.00,VWS V14.01,2013-01-13 20:13:00,
2013-01-13 15:15:00,45.2,44.7,30.00,South,177,0.0,1.0,98,0.00,,,0.00,30.00,VWS V14.01,2013-01-13 20:15:00,
2013-01-13 15:16:00,45.2,44.7,30.00,South,177,0.0,1.0,98,0.00,,,0.00,28.00,VWS V14.01,2013-01-13 20:16:00,
2013-01-13 15:20:00,45.3,44.8,30.00,South,177,0.0,1.0,98,0.00,,,0.00,23.00,VWS V14.01,2013-01-13 20:20:00,
2013-01-13 15:21:00,45.3,44.8,30.00,South,177,0.0,1.0,98,0.00,,,0.00,23.00,VWS V14.01,2013-01-13 20:21:00,
2013-01-13 15:23:00,45.2,44.7,30.00,South,177,0.0,1.0,98,0.00,,,0.00,21.00,VWS V14.01,2013-01-13 20:23:00,
2013-01-13 15:25:00,45.1,44.6,30.00,South,177,0.0,1.0,98,0.00,,,0.00,21.00,VWS V14.01,2013-01-13 20:25:00,
2013-01-13 15:26:00,45.1,44.6,30.00,South,177,0.0,1.0,98,0.00,,,0.00,21.00,VWS V14.01,2013-01-13 20:26:00,
2013-01-13 15:28:00,45.0,44.5,30.00,South,177,0.0,1.0,98,0.00,,,0.00,16.00,VWS V14.01,2013-01-13 20:28:00,
2013-01-13 15:30:00,45.0,44.5,30.00,South,177,0.0,1.0,98,0.00,,,0.00,14.00,VWS V14.01,2013-01-13 20:30:00,
2013-01-13 15:33:00,45.0,44.5,30.00,South,177,0.0,1.0,98,0.00,,,0.00,11.00,VWS V14.01,2013-01-13 20:33:00,
2013-01-13 15:37:00,45.0,44.5,30.00,South,177,0.0,1.0,98,0.00,,,0.00,11.00,VWS V14.01,2013-01-13 20:37:00,
2013-01-13 15:38:00,45.0,44.5,30.01,South,177,0.0,1.0,98,0.00,,,0.00,7.00,VWS V14.01,2013-01-13 20:38:00,
2013-01-13 15:40:00,45.0,44.5,30.01,South,177,0.0,1.0,98,0.00,,,0.00,7.00,VWS V14.01,2013-01-13 20:40:00,
2013-01-13 15:43:00,44.8,44.3,30.01,South,177,0.0,1.0,98,0.00,,,0.00,9.00,VWS V14.01,2013-01-13 20:43:00,
2013-01-13 15:45:00,44.7,44.2,30.01,South,177,0.0,1.0,98,0.00,,,0.00,9.00,VWS V14.01,2013-01-13 20:45:00,
2013-01-13 15:49:00,44.5,44.0,30.01,South,177,0.0,1.0,98,0.00,,,0.00,7.00,VWS V14.01,2013-01-13 20:49:00,
2013-01-13 15:50:00,44.4,43.9,30.01,South,177,0.0,1.0,98,0.00,,,0.00,7.00,VWS V14.01,2013-01-13 20:50:00,
2013-01-13 15:52:00,44.3,43.8,30.01,South,177,0.0,1.0,98,0.00,,,0.00,7.00,VWS V14.01,2013-01-13 20:52:00,
2013-01-13 15:55:00,44.1,43.6,30.01,South,177,0.0,1.0,98,0.00,,,0.00,7.00,VWS V14.01,2013-01-13 20:55:00,
2013-01-13 15:57:00,44.0,43.5,30.01,South,177,0.0,1.0,98,0.00,,,0.00,7.00,VWS V14.01,2013-01-13 20:57:00,
2013-01-13 16:01:00,43.9,43.4,30.00,South,177,0.0,1.0,98,0.00,,,0.00,7.00,VWS V14.01,2013-01-13 21:01:00,
2013-01-13 16:04:00,43.8,43.3,30.00,South,177,0.0,1.0,98,0.00,,,0.00,9.00,VWS V14.01,2013-01-13 21:04:00,
2013-01-13 16:06:00,43.8,43.3,30.00,South,177,0.0,0.0,98,0.00,,,0.00,11.00,VWS V14.01,2013-01-13 21:06:00,
2013-01-13 16:09:00,44.0,43.5,30.00,South,173,0.0,0.0,98,0.00,,,0.00,11.00,VWS V14.01,2013-01-13 21:09:00,
2013-01-13 16:11:00,44.1,43.6,29.99,South,173,1.0,1.0,98,0.00,,,0.00,11.00,VWS V14.01,2013-01-13 21:11:00,
2013-01-13 16:14:00,44.6,44.1,29.99,South,171,0.0,4.0,98,0.00,,BKN027,0.00,12.00,VWS V14.01,2013-01-13 21:14:00,
2013-01-13 16:16:00,44.7,44.2,29.99,South,171,0.0,4.0,98,0.00,,BKN027,0.00,12.00,VWS V14.01,2013-01-13 21:16:00,
2013-01-13 16:20:00,45.0,44.5,29.99,SSE,165,0.0,4.0,98,0.00,,BKN027,0.00,11.00,VWS V14.01,2013-01-13 21:20:00,
2013-01-13 16:21:00,45.2,44.7,29.99,SSE,165,0.0,4.0,98,0.00,,BKN027,0.00,11.00,VWS V14.01,2013-01-13 21:21:00,
2013-01-13 16:25:00,45.3,44.8,29.99,SSW,209,0.0,4.0,98,0.00,,BKN027,0.00,7.00,VWS V14.01,2013-01-13 21:25:00,
2013-01-13 16:26:00,45.4,44.9,29.99,WSW,243,0.0,4.0,98,0.00,,BKN027,0.00,7.00,VWS V14.01,2013-01-13 21:26:00,
2013-01-13 16:28:00,45.4,44.9,29.99,WSW,242,0.0,4.0,98,0.00,,BKN027,0.00,5.00,VWS V14.01,2013-01-13 21:28:00,
2013-01-13 16:32:00,45.5,45.0,29.99,SE,145,0.0,4.0,98,0.00,,BKN027,0.00,0.00,VWS V14.01,2013-01-13 21:32:00,
2013-01-13 16:33:00,45.5,45.0,29.99,SE,145,0.0,4.0,98,0.00,,BKN027,0.00,0.00,VWS V14.01,2013-01-13 21:33:00,
2013-01-13 16:35:00,45.5,45.0,29.99,SSE,161,0.0,4.0,98,0.00,,BKN027,0.00,0.00,VWS V14.01,2013-01-13 21:35:00,
2013-01-13 16:37:00,45.5,45.0,29.99,SSE,161,0.0,4.0,98,0.00,,BKN027,0.00,0.00,VWS V14.01,2013-01-13 21:37:00,
2013-01-13 16:40:00,45.4,44.9,29.99,SSE,165,0.0,4.0,98,0.00,,BKN027,0.00,0.00,VWS V14.01,2013-01-13 21:40:00,
2013-01-13 16:42:00,45.4,44.9,29.99,SSE,165,0.0,4.0,98,0.00,,BKN027,0.00,0.00,VWS V14.01,2013-01-13 21:42:00,
2013-01-13 16:45:00,45.3,44.8,29.99,SSE,165,0.0,4.0,98,0.00,,BKN027,0.00,0.00,VWS V14.01,2013-01-13 21:45:00,
2013-01-13 16:47:00,45.2,44.7,29.99,SSE,165,0.0,4.0,98,0.00,,BKN027,0.00,0.00,VWS V14.01,2013-01-13 21:47:00,
2013-01-13 16:50:00,45.1,44.6,29.99,SSE,166,0.0,4.0,98,0.00,,BKN027,0.00,0.00,VWS V14.01,2013-01-13 21:50:00,
2013-01-13 16:54:00,45.0,44.5,29.99,West,279,0.0,4.0,98,0.00,,BKN027,0.00,0.00,VWS V14.01,2013-01-13 21:54:00,
2013-01-13 16:57:00,44.9,44.4,29.98,West,278,0.0,4.0,98,0.00,,BKN027,0.00,0.00,VWS V14.01,2013-01-13 21:57:00,
2013-01-13 17:01:00,44.9,44.4,29.99,West,278,0.0,4.0,98,0.00,,BKN027,0.00,0.00,VWS V14.01,2013-01-13 22:01:00,
2013-01-13 17:04:00,44.9,44.4,29.98,West,278,0.0,4.0,98,0.00,,BKN027,0.00,0.00,VWS V14.01,2013-01-13 22:04:00,
2013-01-13 17:06:00,44.9,44.4,29.98,West,278,0.0,0.0,98,0.00,,BKN027,0.00,0.00,VWS V14.01,2013-01-13 22:06:00,
2013-01-13 17:08:00,44.9,44.4,29.98,West,278,0.0,0.0,98,0.00,,BKN027,0.00,0.00,VWS V14.01,2013-01-13 22:08:00,
2013-01-13 17:13:00,44.9,44.4,29.98,West,278,0.0,0.0,98,0.00,,BKN027,0.00,0.00,VWS V14.01,2013-01-13 22:13:00,
2013-01-13 17:14:00,45.0,44.5,29.98,West,278,0.0,0.0,98,0.00,,BKN027,0.00,0.00,VWS V14.01,2013-01-13 22:14:00,
2013-01-13 17:18:00,44.9,44.4,29.97,West,278,0.0,0.0,98,0.00,,BKN027,0.00,0.00,VWS V14.01,2013-01-13 22:18:00,
2013-01-13 17:23:00,45.0,44.5,29.98,West,278,0.0,0.0,98,0.00,,BKN027,0.00,0.00,VWS V14.01,2013-01-13 22:23:00,
2013-01-13 17:28:00,45.0,44.5,29.98,West,278,0.0,2.0,98,0.00,,BKN027,0.00,0.00,VWS V14.01,2013-01-13 22:28:00,
2013-01-13 17:33:00,45.0,44.5,29.98,West,278,0.0,2.0,98,0.00,,BKN027,0.00,0.00,VWS V14.01,2013-01-13 22:33:00,
2013-01-13 17:37:00,44.9,44.4,29.98,West,278,0.0,2.0,98,0.00,,BKN027,0.00,0.00,VWS V14.01,2013-01-13 22:37:00,
2013-01-13 17:42:00,44.9,44.4,29.98,West,278,0.0,2.0,98,0.00,,BKN027,0.00,0.00,VWS V14.01,2013-01-13 22:42:00,
2013-01-13 17:44:00,44.8,44.3,29.98,West,278,0.0,2.0,98,0.00,,BKN027,0.00,0.00,VWS V14.01,2013-01-13 22:44:00,
2013-01-13 17:45:00,44.9,44.4,29.98,West,278,0.0,2.0,98,0.00,,BKN027,0.00,0.00,VWS V14.01,2013-01-13 22:45:00,
2013-01-13 17:47:00,44.9,44.4,29.98,West,278,0.0,2.0,98,0.00,,BKN027,0.00,0.00,VWS V14.01,2013-01-13 22:47:00,
2013-01-13 17:49:00,44.8,44.3,29.98,SW,219,0.0,2.0,98,0.00,,BKN027,0.00,0.00,VWS V14.01,2013-01-13 22:49:00,
2013-01-13 17:51:00,44.8,44.3,29.98,SW,223,0.0,2.0,98,0.00,,BKN027,0.00,0.00,VWS V14.01,2013-01-13 22:51:00,
2013-01-13 17:54:00,44.8,44.3,29.98,SW,226,0.0,2.0,98,0.00,,BKN027,0.00,0.00,VWS V14.01,2013-01-13 22:54:00,
2013-01-13 17:56:00,44.8,44.3,29.98,SW,226,0.0,2.0,98,0.00,,BKN027,0.00,0.00,VWS V14.01,2013-01-13 22:56:00,
2013-01-13 17:57:00,44.7,44.2,29.98,SW,226,0.0,2.0,98,0.00,,BKN027,0.00,0.00,VWS V14.01,2013-01-13 22:57:00,
2013-01-13 18:01:00,44.7,44.2,29.99,South,184,0.0,2.0,98,0.00,,BKN027,0.00,0.00,VWS V14.01,2013-01-13 23:01:00,
2013-01-13 18:03:00,44.8,44.3,29.99,South,184,0.0,2.0,98,0.00,,BKN027,0.00,0.00,VWS V14.01,2013-01-13 23:03:00,
2013-01-13 18:04:00,44.8,44.3,29.99,SW,224,0.0,2.0,98,0.00,,BKN027,0.00,0.00,VWS V14.01,2013-01-13 23:04:00,
2013-01-13 18:06:00,44.9,44.4,29.99,SW,228,1.0,2.0,98,0.00,,BKN027,0.00,0.00,VWS V14.01,2013-01-13 23:06:00,
2013-01-13 18:09:00,45.0,44.5,29.99,SW,229,0.0,2.0,98,0.00,,BKN027,0.00,0.00,VWS V14.01,2013-01-13 23:09:00,
2013-01-13 18:13:00,45.1,44.6,29.99,WSW,248,0.0,2.0,98,0.00,,OVC017,0.00,0.00,VWS V14.01,2013-01-13 23:13:00,
2013-01-13 18:14:00,45.1,44.6,29.99,SW,236,2.0,2.0,98,0.00,,OVC017,0.00,0.00,VWS V14.01,2013-01-13 23:14:00,
2013-01-13 18:18:00,45.2,44.7,29.99,South,171,0.0,7.0,98,0.00,,OVC017,0.00,0.00,VWS V14.01,2013-01-13 23:18:00,
2013-01-13 18:21:00,45.3,44.8,29.99,WSW,249,0.0,7.0,98,0.00,,OVC017,0.00,0.00,VWS V14.01,2013-01-13 23:21:00,
2013-01-13 18:23:00,45.3,44.8,29.99,SW,225,2.0,7.0,98,0.00,,OVC017,0.00,0.00,VWS V14.01,2013-01-13 23:23:00,
2013-01-13 18:26:00,45.2,44.7,29.99,SSW,207,0.0,7.0,98,0.00,,OVC017,0.00,0.00,VWS V14.01,2013-01-13 23:26:00,
2013-01-13 18:28:00,45.2,44.7,29.99,SSW,208,0.0,7.0,98,0.00,,OVC017,0.00,0.00,VWS V14.01,2013-01-13 23:28:00,
2013-01-13 18:32:00,45.1,44.6,29.99,WSW,251,0.0,7.0,98,0.00,,OVC017,0.00,0.00,VWS V14.01,2013-01-13 23:32:00,
2013-01-13 18:33:00,45.1,44.6,29.99,SW,218,1.0,7.0,98,0.00,,OVC017,0.00,0.00,VWS V14.01,2013-01-13 23:33:00,
2013-01-13 18:37:00,45.1,44.6,29.99,SW,232,0.0,7.0,98,0.00,,OVC017,0.00,0.00,VWS V14.01,2013-01-13 23:37:00,
2013-01-13 18:38:00,45.1,44.6,29.99,SW,232,0.0,7.0,98,0.00,,OVC017,0.00,0.00,VWS V14.01,2013-01-13 23:38:00,
2013-01-13 18:40:00,45.2,44.7,29.99,SW,234,0.0,7.0,98,0.00,,OVC017,0.00,0.00,VWS V14.01,2013-01-13 23:40:00,
2013-01-13 18:44:00,45.2,44.7,29.99,SW,234,0.0,7.0,98,0.00,,OVC017,0.00,0.00,VWS V14.01,2013-01-13 23:44:00,
2013-01-13 18:47:00,45.2,44.7,29.99,SW,234,0.0,7.0,98,0.00,,OVC017,0.00,0.00,VWS V14.01,2013-01-13 23:47:00,
2013-01-13 18:49:00,45.1,44.6,29.99,SW,234,0.0,7.0,98,0.00,,OVC017,0.00,0.00,VWS V14.01,2013-01-13 23:49:00,
2013-01-13 18:51:00,45.1,44.6,30.00,SW,234,0.0,7.0,98,0.00,,OVC017,0.00,0.00,VWS V14.01,2013-01-13 23:51:00,
2013-01-13 18:54:00,45.1,44.6,29.99,WSW,238,0.0,7.0,98,0.00,,OVC017,0.00,0.00,VWS V14.01,2013-01-13 23:54:00,
2013-01-13 18:56:00,45.1,44.6,29.99,WSW,238,0.0,7.0,98,0.00,,OVC017,0.00,0.00,VWS V14.01,2013-01-13 23:56:00,
2013-01-13 18:58:00,45.0,44.5,30.00,WSW,238,0.0,7.0,98,0.00,,OVC017,0.00,0.00,VWS V14.01,2013-01-13 23:58:00,
2013-01-13 18:59:00,45.0,44.5,30.00,WSW,240,0.0,7.0,98,0.00,,OVC017,0.00,0.00,VWS V14.01,2013-01-13 23:59:00,
2013-01-13 19:03:00,45.0,44.5,30.00,SW,225,1.0,7.0,98,0.00,,OVC017,0.00,0.00,VWS V14.01,2013-01-14 00:03:00,
2013-01-13 19:04:00,45.0,44.5,30.00,West,266,0.0,7.0,98,0.00,,OVC017,0.00,0.00,VWS V14.01,2013-01-14 00:04:00,
2013-01-13 19:05:00,45.0,44.5,30.00,South,190,4.0,7.0,98,0.00,,OVC017,0.00,0.00,VWS V14.01,2013-01-14 00:05:00,
2013-01-13 19:08:00,45.0,44.5,30.00,WSW,246,0.0,5.0,98,0.00,,OVC017,0.00,0.00,VWS V14.01,2013-01-14 00:08:00,
2013-01-13 19:13:00,45.0,44.5,30.00,South,185,2.0,5.0,98,0.00,,OVC017,0.00,0.00,VWS V14.01,2013-01-14 00:13:00,
2013-01-13 19:15:00,45.0,44.5,30.00,West,263,1.0,7.0,98,0.00,,OVC017,0.00,0.00,VWS V14.01,2013-01-14 00:15:00,
2013-01-13 19:18:00,45.0,44.5,30.00,SSW,192,4.0,9.0,98,0.00,,OVC017,0.00,0.00,VWS V14.01,2013-01-14 00:18:00,
2013-01-13 19:20:00,44.9,44.4,30.00,SW,216,4.0,9.0,98,0.00,,OVC017,0.00,0.00,VWS V14.01,2013-01-14 00:20:00,
2013-01-13 19:23:00,44.9,44.4,29.99,SE,142,0.0,9.0,98,0.00,,OVC017,0.00,0.00,VWS V14.01,2013-01-14 00:23:00,
2013-01-13 19:25:00,44.9,44.4,29.99,SSW,194,1.0,9.0,98,0.00,,OVC017,0.00,0.00,VWS V14.01,2013-01-14 00:25:00,
2013-01-13 19:27:00,44.9,44.4,29.99,SW,216,5.0,9.0,98,0.00,,OVC017,0.00,0.00,VWS V14.01,2013-01-14 00:27:00,
2013-01-13 19:30:00,44.9,44.4,30.00,SSW,192,0.0,9.0,98,0.00,,OVC017,0.00,0.00,VWS V14.01,2013-01-14 00:30:00,
2013-01-13 19:32:00,44.9,44.4,30.00,SW,219,0.0,9.0,98,0.00,,OVC017,0.00,0.00,VWS V14.01,2013-01-14 00:32:00,
2013-01-13 19:34:00,44.8,44.3,30.00,SW,219,0.0,9.0,98,0.00,,OVC017,0.00,0.00,VWS V14.01,2013-01-14 00:34:00,
2013-01-13 19:35:00,44.8,44.3,30.00,SSW,202,3.0,9.0,98,0.00,,OVC017,0.00,0.00,VWS V14.01,2013-01-14 00:35:00,
2013-01-13 19:37:00,44.8,44.3,30.00,SSW,201,0.0,9.0,98,0.00,,OVC017,0.00,0.00,VWS V14.01,2013-01-14 00:37:00,
2013-01-13 19:39:00,44.8,44.3,30.00,SW,217,4.0,9.0,98,0.00,,OVC017,0.00,0.00,VWS V14.01,2013-01-14 00:39:00,
2013-01-13 19:44:00,44.7,44.2,30.00,West,262,0.0,9.0,98,0.00,,OVC017,0.00,0.00,VWS V14.01,2013-01-14 00:44:00,
2013-01-13 19:46:00,44.8,44.3,30.00,SSE,155,4.0,9.0,98,0.00,,OVC017,0.00,0.00,VWS V14.01,2013-01-14 00:46:00,
2013-01-13 19:49:00,44.7,44.2,29.99,South,180,4.0,9.0,98,0.00,,OVC017,0.00,0.00,VWS V14.01,2013-01-14 00:49:00,
2013-01-13 19:51:00,44.7,44.2,30.00,SW,225,4.0,9.0,98,0.00,,OVC017,0.00,0.00,VWS V14.01,2013-01-14 00:51:00,
2013-01-13 19:54:00,44.8,44.3,30.00,SSW,194,7.0,9.0,98,0.00,,OVC017,0.00,0.00,VWS V14.01,2013-01-14 00:54:00,
2013-01-13 19:57:00,45.0,44.5,29.99,SSW,196,1.0,9.0,98,0.00,,OVC017,0.00,0.00,VWS V14.01,2013-01-14 00:57:00,
2013-01-13 19:59:00,45.0,44.5,29.99,SSE,150,2.0,9.0,98,0.00,,OVC017,0.00,0.00,VWS V14.01,2013-01-14 00:59:00,
2013-01-13 20:03:00,45.0,44.5,29.98,South,173,0.0,9.0,98,0.00,,OVC017,0.00,0.00,VWS V14.01,2013-01-14 01:03:00,
2013-01-13 20:04:00,45.0,44.5,29.98,SSW,194,2.0,9.0,98,0.00,,OVC017,0.00,0.00,VWS V14.01,2013-01-14 01:04:00,
2013-01-13 20:05:00,45.0,44.5,29.98,SSW,211,2.0,9.0,98,0.00,,OVC017,0.00,0.00,VWS V14.01,2013-01-14 01:05:00,
2013-01-13 20:08:00,45.0,44.5,29.98,SSE,164,2.0,7.0,98,0.00,,OVC017,0.00,0.00,VWS V14.01,2013-01-14 01:08:00,
2013-01-13 20:10:00,45.0,44.5,29.98,SSE,161,2.0,8.0,98,0.00,,OVC017,0.00,0.00,VWS V14.01,2013-01-14 01:10:00,
2013-01-13 20:11:00,45.0,44.5,29.99,SSW,194,0.0,8.0,98,0.00,,OVC017,0.00,0.00,VWS V14.01,2013-01-14 01:11:00,
2013-01-13 20:13:00,45.0,44.5,29.98,SE,124,0.0,8.0,98,0.00,,OVC017,0.00,0.00,VWS V14.01,2013-01-14 01:13:00,
2013-01-13 20:16:00,45.0,44.5,29.98,SSW,203,4.0,8.0,98,0.00,,,0.00,0.00,VWS V14.01,2013-01-14 01:16:00,
2013-01-13 20:18:00,45.0,44.5,29.98,South,169,0.0,8.0,98,0.00,,,0.00,0.00,VWS V14.01,2013-01-14 01:18:00,
2013-01-13 20:22:00,45.0,44.5,29.98,South,190,0.0,10.0,98,0.00,,,0.00,0.00,VWS V14.01,2013-01-14 01:22:00,
2013-01-13 20:23:00,45.0,44.5,29.98,South,182,0.0,10.0,98,0.00,,,0.00,0.00,VWS V14.01,2013-01-14 01:23:00,
2013-01-13 20:29:00,45.0,44.5,29.98,SW,215,2.0,10.0,98,0.00,,,0.00,0.00,VWS V14.01,2013-01-14 01:29:00,
2013-01-13 20:32:00,45.0,44.5,29.98,SE,134,5.0,10.0,98,0.00,,,0.00,0.00,VWS V14.01,2013-01-14 01:32:00,
2013-01-13 20:34:00,45.0,44.5,29.98,South,190,3.0,10.0,98,0.00,,,0.00,0.00,VWS V14.01,2013-01-14 01:34:00,
2013-01-13 20:35:00,45.0,44.5,29.98,SW,225,1.0,10.0,98,0.00,,,0.00,0.00,VWS V14.01,2013-01-14 01:35:00,
2013-01-13 20:39:00,45.0,44.5,29.98,SSW,206,4.0,10.0,98,0.00,,,0.00,0.00,VWS V14.01,2013-01-14 01:39:00,
2013-01-13 20:42:00,45.0,44.5,29.98,SW,217,1.0,10.0,98,0.00,,,0.00,0.00,VWS V14.01,2013-01-14 01:42:00,
2013-01-13 20:44:00,45.0,44.5,29.98,South,177,4.0,10.0,98,0.00,,,0.00,0.00,VWS V14.01,2013-01-14 01:44:00,
2013-01-13 20:46:00,45.0,44.5,29.97,SE,138,0.0,10.0,98,0.00,,,0.00,0.00,VWS V14.01,2013-01-14 01:46:00,
2013-01-13 20:48:00,44.9,44.4,29.97,SE,136,1.0,10.0,98,0.00,,,0.00,0.00,VWS V14.01,2013-01-14 01:48:00,
2013-01-13 20:49:00,44.9,44.4,29.97,South,173,4.0,10.0,98,0.00,,,0.00,0.00,VWS V14.01,2013-01-14 01:49:00,
2013-01-13 20:51:00,44.9,44.4,29.97,SSE,161,5.0,10.0,98,0.00,,,0.00,0.00,VWS V14.01,2013-01-14 01:51:00,
2013-01-13 20:54:00,44.9,44.4,29.96,ESE,117,2.0,10.0,98,0.00,,,0.00,0.00,VWS V14.01,2013-01-14 01:54:00,
2013-01-13 20:56:00,44.9,44.4,29.96,SSE,150,0.0,10.0,98,0.00,,,0.00,0.00,VWS V14.01,2013-01-14 01:56:00,
2013-01-13 20:58:00,45.0,44.5,29.96,South,175,0.0,10.0,98,0.00,,,0.00,0.00,VWS V14.01,2013-01-14 01:58:00,
2013-01-13 20:59:00,45.0,44.5,29.96,SE,142,5.0,10.0,98,0.00,,,0.00,0.00,VWS V14.01,2013-01-14 01:59:00,
2013-01-13 21:01:00,45.0,44.5,29.96,South,184,2.0,10.0,98,0.00,,,0.00,0.00,VWS V14.01,2013-01-14 02:01:00,
2013-01-13 21:05:00,45.0,44.5,29.96,SSE,163,1.0,10.0,98,0.00,,,0.00,0.00,VWS V14.01,2013-01-14 02:05:00,
2013-01-13 21:12:00,44.9,44.4,29.96,SSW,192,2.0,8.0,98,0.00,,,0.00,0.00,VWS V14.01,2013-01-14 02:12:00,
2013-01-13 21:15:00,44.9,44.4,29.96,SSE,167,4.0,8.0,98,0.00,,,0.00,0.00,VWS V14.01,2013-01-14 02:15:00,
2013-01-13 21:17:00,44.9,44.4,29.96,South,190,5.0,8.0,98,0.00,,,0.00,0.00,VWS V14.01,2013-01-14 02:17:00,
2013-01-13 21:22:00,44.9,44.4,29.96,South,174,0.0,8.0,98,0.00,,,0.00,0.00,VWS V14.01,2013-01-14 02:22:00,
2013-01-13 21:23:00,45.0,44.5,29.96,South,175,0.0,8.0,98,0.00,,,0.00,0.00,VWS V14.01,2013-01-14 02:23:00,
2013-01-13 21:25:00,44.9,44.4,29.95,SE,146,2.0,8.0,98,0.00,,,0.00,0.00,VWS V14.01,2013-01-14 02:25:00,
2013-01-13 21:30:00,45.0,44.5,29.95,SSE,157,6.0,8.0,98,0.00,,,0.00,0.00,VWS V14.01,2013-01-14 02:30:00,
2013-01-13 21:34:00,45.1,44.6,29.95,South,170,1.0,8.0,98,0.00,,,0.00,0.00,VWS V14.01,2013-01-14 02:34:00,
2013-01-13 21:35:00,45.1,44.6,29.95,South,181,1.0,8.0,98,0.00,,,0.00,0.00,VWS V14.01,2013-01-14 02:35:00,
2013-01-13 21:37:00,45.0,44.5,29.95,SSW,201,1.0,8.0,98,0.00,,,0.00,0.00,VWS V14.01,2013-01-14 02:37:00,
2013-01-13 21:39:00,45.1,44.6,29.95,SSW,196,1.0,8.0,98,0.00,,,0.00,0.00,VWS V14.01,2013-01-14 02:39:00,
2013-01-13 21:41:00,45.0,44.5,29.95,SE,140,2.0,8.0,98,0.00,,,0.00,0.00,VWS V14.01,2013-01-14 02:41:00,
2013-01-13 21:46:00,45.0,44.5,29.95,SSW,206,0.0,8.0,98,0.00,,,0.00,0.00,VWS V14.01,2013-01-14 02:46:00,
2013-01-13 21:47:00,45.0,44.5,29.95,SSE,148,2.0,8.0,98,0.00,,,0.00,0.00,VWS V14.01,2013-01-14 02:47:00,
2013-01-13 21:49:00,45.0,44.5,29.95,SSE,149,1.0,8.0,98,0.00,,,0.00,0.00,VWS V14.01,2013-01-14 02:49:00,
2013-01-13 21:53:00,45.0,44.5,29.96,SSW,202,3.0,8.0,98,0.00,,,0.00,0.00,VWS V14.01,2013-01-14 02:53:00,
2013-01-13 21:54:00,45.0,44.5,29.95,SE,146,0.0,8.0,98,0.00,,,0.00,0.00,VWS V14.01,2013-01-14 02:54:00,
2013-01-13 21:56:00,44.9,44.4,29.96,SE,132,0.0,8.0,98,0.00,,,0.00,0.00,VWS V14.01,2013-01-14 02:56:00,
2013-01-13 21:58:00,44.9,44.4,29.95,SSW,200,0.0,8.0,98,0.00,,,0.00,0.00,VWS V14.01,2013-01-14 02:58:00,
2013-01-13 21:59:00,44.9,44.4,29.95,South,171,0.0,8.0,98,0.00,,,0.00,0.00,VWS V14.01,2013-01-14 02:59:00,
2013-01-13 22:01:00,44.9,44.4,29.95,South,188,6.0,8.0,98,0.00,,,0.00,0.00,VWS V14.01,2013-01-14 03:01:00,
2013-01-13 22:04:00,44.9,44.4,29.95,SE,138,0.0,8.0,98,0.00,,,0.00,0.00,VWS V14.01,2013-01-14 03:04:00,
2013-01-13 22:05:00,44.9,44.4,29.95,SE,140,1.0,8.0,98,0.00,,,0.00,0.00,VWS V14.01,2013-01-14 03:05:00,
2013-01-13 22:06:00,45.0,44.5,29.96,SW,218,0.0,3.0,98,0.00,,,0.00,0.00,VWS V14.01,2013-01-14 03:06:00,
2013-01-13 22:10:00,45.0,44.5,29.96,SW,215,0.0,6.0,98,0.00,,,0.00,0.00,VWS V14.01,2013-01-14 03:10:00,
2013-01-13 22:11:00,45.0,44.5,29.96,SW,215,0.0,6.0,98,0.00,,,0.00,0.00,VWS V14.01,2013-01-14 03:11:00,
2013-01-13 22:15:00,45.0,44.5,29.96,South,191,0.0,6.0,98,0.00,,,0.00,0.00,VWS V14.01,2013-01-14 03:15:00,
2013-01-13 22:17:00,44.9,44.4,29.96,SW,218,0.0,6.0,98,0.00,,,0.00,0.00,VWS V14.01,2013-01-14 03:17:00,
2013-01-13 22:22:00,44.8,44.3,29.95,South,189,0.0,6.0,98,0.00,,,0.00,0.00,VWS V14.01,2013-01-14 03:22:00,
2013-01-13 22:23:00,44.8,44.3,29.95,South,184,0.0,6.0,98,0.00,,,0.00,0.00,VWS V14.01,2013-01-14 03:23:00,
2013-01-13 22:25:00,44.9,44.4,29.95,South,184,0.0,6.0,98,0.00,,,0.00,0.00,VWS V14.01,2013-01-14 03:25:00,
2013-01-13 22:28:00,44.9,44.4,29.96,SE,134,0.0,6.0,98,0.00,,,0.00,0.00,VWS V14.01,2013-01-14 03:28:00,
2013-01-13 22:32:00,44.9,44.4,29.95,SE,138,0.0,6.0,98,0.00,,,0.00,0.00,VWS V14.01,2013-01-14 03:32:00,
2013-01-13 22:34:00,44.9,44.4,29.96,WSW,258,0.0,6.0,98,0.00,,,0.00,0.00,VWS V14.01,2013-01-14 03:34:00,
2013-01-13 22:35:00,44.9,44.4,29.96,SSE,160,1.0,6.0,98,0.00,,,0.00,0.00,VWS V14.01,2013-01-14 03:35:00,
2013-01-13 22:39:00,45.0,44.5,29.96,SW,219,0.0,6.0,98,0.00,,,0.00,0.00,VWS V14.01,2013-01-14 03:39:00,
2013-01-13 22:40:00,45.0,44.5,29.96,SW,219,0.0,6.0,98,0.00,,,0.00,0.00,VWS V14.01,2013-01-14 03:40:00,
2013-01-13 22:44:00,45.0,44.5,29.96,South,182,0.0,7.0,98,0.00,,,0.00,0.00,VWS V14.01,2013-01-14 03:44:00,
2013-01-13 22:46:00,45.0,44.5,29.96,South,187,1.0,7.0,98,0.00,,,0.00,0.00,VWS V14.01,2013-01-14 03:46:00,
2013-01-13 22:49:00,45.0,44.5,29.95,SW,234,0.0,7.0,98,0.00,,,0.00,0.00,VWS V14.01,2013-01-14 03:49:00,
2013-01-13 22:51:00,45.1,44.6,29.96,SW,234,0.0,7.0,98,0.00,,,0.00,0.00,VWS V14.01,2013-01-14 03:51:00,
2013-01-13 22:52:00,45.1,44.6,29.95,SW,234,1.0,7.0,98,0.00,,,0.00,0.00,VWS V14.01,2013-01-14 03:52:00,
2013-01-13 22:54:00,45.1,44.6,29.95,SW,236,1.0,7.0,98,0.00,,,0.00,0.00,VWS V14.01,2013-01-14 03:54:00,
2013-01-13 22:56:00,45.0,44.5,29.95,South,190,1.0,7.0,98,0.00,,,0.00,0.00,VWS V14.01,2013-01-14 03:56:00,
2013-01-13 22:59:00,45.0,44.5,29.95,SSE,168,1.0,7.0,98,0.00,,,0.00,0.00,VWS V14.01,2013-01-14 03:59:00,
2013-01-13 23:01:00,45.1,44.6,29.95,SW,234,4.0,7.0,98,0.00,,,0.00,0.00,VWS V14.01,2013-01-14 04:01:00,
2013-01-13 23:06:00,45.3,44.8,29.95,WSW,241,0.0,1.0,98,0.00,,,0.00,0.00,VWS V14.01,2013-01-14 04:06:00,
2013-01-13 23:08:00,45.4,44.9,29.95,SSE,147,5.0,6.0,98,0.00,,,0.00,0.00,VWS V14.01,2013-01-14 04:08:00,
2013-01-13 23:10:00,45.4,44.9,29.95,South,182,0.0,6.0,98,0.00,,,0.00,0.00,VWS V14.01,2013-01-14 04:10:00,
2013-01-13 23:13:00,45.4,44.9,29.95,SW,219,0.0,6.0,98,0.00,,,0.00,0.00,VWS V14.01,2013-01-14 04:13:00,
2013-01-13 23:15:00,45.4,44.9,29.95,SW,228,0.0,6.0,98,0.00,,,0.00,0.00,VWS V14.01,2013-01-14 04:15:00,
2013-01-13 23:16:00,45.4,44.9,29.95,SSE,163,3.0,6.0,98,0.00,,,0.00,0.00,VWS V14.01,2013-01-14 04:16:00,
2013-01-13 23:18:00,45.4,44.9,29.95,SSW,200,5.0,6.0,98,0.00,,,0.00,0.00,VWS V14.01,2013-01-14 04:18:00,
2013-01-13 23:23:00,45.4,44.9,29.96,SE,138,1.0,6.0,98,0.00,,,0.00,0.00,VWS V14.01,2013-01-14 04:23:00,
2013-01-13 23:25:00,45.4,44.9,29.96,South,171,1.0,6.0,98,0.00,,,0.00,0.00,VWS V14.01,2013-01-14 04:25:00,
2013-01-13 23:28:00,45.4,44.9,29.96,SW,218,4.0,6.0,98,0.00,,,0.00,0.00,VWS V14.01,2013-01-14 04:28:00,
2013-01-13 23:30:00,45.4,44.9,29.96,SW,225,1.0,6.0,98,0.00,,,0.00,0.00,VWS V14.01,2013-01-14 04:30:00,
2013-01-13 23:32:00,45.5,45.0,29.95,SSW,194,0.0,6.0,98,0.00,,,0.00,0.00,VWS V14.01,2013-01-14 04:32:00,
2013-01-13 23:35:00,45.6,45.1,29.95,South,188,0.0,6.0,98,0.00,,,0.00,0.00,VWS V14.01,2013-01-14 04:35:00,
2013-01-13 23:39:00,45.6,45.1,29.95,SW,225,3.0,6.0,98,0.00,,,0.00,0.00,VWS V14.01,2013-01-14 04:39:00,
2013-01-13 23:40:00,45.7,45.2,29.95,SSW,211,0.0,6.0,98,0.00,,,0.00,0.00,VWS V14.01,2013-01-14 04:40:00,
2013-01-13 23:44:00,45.7,45.2,29.95,South,179,2.0,6.0,98,0.00,,,0.00,0.00,VWS V14.01,2013-01-14 04:44:00,
2013-01-13 23:47:00,45.6,45.1,29.95,SW,223,0.0,6.0,98,0.00,,,0.00,0.00,VWS V14.01,2013-01-14 04:47:00,
2013-01-13 23:49:00,45.6,45.1,29.95,SW,223,0.0,6.0,98,0.00,,,0.00,0.00,VWS V14.01,2013-01-14 04:49:00,
2013-01-13 23:52:00,45.7,45.2,29.95,South,175,0.0,6.0,98,0.00,,,0.00,0.00,VWS V14.01,2013-01-14 04:52:00,
2013-01-13 23:54:00,45.7,45.2,29.95,SW,224,0.0,6.0,98,0.00,,,0.00,0.00,VWS V14.01,2013-01-14 04:54:00,
2013-01-13 23:57:00,45.7,45.2,29.96,SW,224,0.0,6.0,98,0.00,,,0.00,0.00,VWS V14.01,2013-01-14 04:57:00,